Time,TemperatureF,DewpointF,PressureIn,WindDirection,WindDirectionDegrees,WindSpeedMPH,WindSpeedGustMPH,Humidity,HourlyPrecipIn,Conditions,Clouds,dailyrainin,SoftwareType,DateUTC
2013-12-16 00:01:00,29.6,25.4,30.25,NNW,328,4.0,5.0,84,0.00,,,0.00,Wunderground v.1.15,2013-12-16 05:01:00,
2013-12-16 00:02:00,29.7,25.5,30.25,NW,310,4.0,5.0,84,0.00,,,0.00,Wunderground v.1.15,2013-12-16 05:02:00,
2013-12-16 00:03:00,29.7,25.5,30.25,NW,321,4.0,5.0,84,0.00,,,0.00,Wunderground v.1.15,2013-12-16 05:03:00,
2013-12-16 00:04:00,29.7,25.5,30.24,NW,313,4.0,5.0,84,0.00,,,0.00,Wunderground v.1.15,2013-12-16 05:04:00,
2013-12-16 00:05:00,29.7,25.5,30.25,NW,308,4.0,7.0,84,0.00,,,0.00,Wunderground v.1.15,2013-12-16 05:05:00,
2013-12-16 00:08:00,29.7,25.5,30.24,NW,305,5.0,7.0,84,0.00,,,0.00,Wunderground v.1.15,2013-12-16 05:08:00,
2013-12-16 00:09:00,29.7,25.5,30.25,NW,313,5.0,7.0,84,0.00,,,0.00,Wunderground v.1.15,2013-12-16 05:09:00,
2013-12-16 00:10:00,29.6,25.4,30.25,NNW,336,5.0,5.0,84,0.00,,,0.00,Wunderground v.1.15,2013-12-16 05:10:00,
2013-12-16 00:11:00,29.6,25.4,30.25,North,355,5.0,5.0,84,0.00,,,0.00,Wunderground v.1.15,2013-12-16 05:11:00,
2013-12-16 00:12:00,29.5,25.5,30.25,North,355,4.0,5.0,85,0.00,,,0.00,Wunderground v.1.15,2013-12-16 05:12:00,
2013-12-16 00:14:00,29.5,25.5,30.25,NNW,336,4.0,5.0,85,0.00,,,0.00,Wunderground v.1.15,2013-12-16 05:14:00,
2013-12-16 00:16:00,29.4,25.4,30.24,NNW,329,4.0,6.0,85,0.00,,,0.00,Wunderground v.1.15,2013-12-16 05:16:00,
2013-12-16 00:18:00,29.4,25.4,30.24,NNW,341,5.0,6.0,85,0.00,,,0.00,Wunderground v.1.15,2013-12-16 05:18:00,
2013-12-16 00:20:00,29.4,25.4,30.25,NW,325,5.0,5.0,85,0.00,,,0.00,Wunderground v.1.15,2013-12-16 05:20:00,
2013-12-16 00:21:00,29.4,25.4,30.25,NW,322,5.0,5.0,85,0.00,,,0.00,Wunderground v.1.15,2013-12-16 05:21:00,
2013-12-16 00:22:00,29.4,25.4,30.24,NNW,334,5.0,6.0,85,0.00,,,0.00,Wunderground v.1.15,2013-12-16 05:22:00,
2013-12-16 00:26:00,29.3,25.4,30.25,NNW,330,5.0,7.0,85,0.00,,,0.00,Wunderground v.1.15,2013-12-16 05:26:00,
2013-12-16 00:27:00,29.3,25.4,30.25,NNW,342,5.0,7.0,85,0.00,,,0.00,Wunderground v.1.15,2013-12-16 05:27:00,
2013-12-16 00:29:00,29.4,25.4,30.25,NW,316,5.0,7.0,85,0.00,,,0.00,Wunderground v.1.15,2013-12-16 05:29:00,
2013-12-16 00:30:00,29.4,25.4,30.24,NNW,347,5.0,5.0,85,0.00,,,0.00,Wunderground v.1.15,2013-12-16 05:30:00,
2013-12-16 00:31:00,29.4,25.4,30.24,NNW,329,5.0,5.0,85,0.00,,,0.00,Wunderground v.1.15,2013-12-16 05:31:00,
2013-12-16 00:32:00,29.4,25.4,30.24,NNW,338,5.0,5.0,85,0.00,,,0.00,Wunderground v.1.15,2013-12-16 05:32:00,
2013-12-16 00:34:00,29.4,25.4,30.24,NNW,336,5.0,6.0,85,0.00,,,0.00,Wunderground v.1.15,2013-12-16 05:34:00,
2013-12-16 00:35:00,29.4,25.4,30.24,NNW,342,5.0,6.0,85,0.00,,,0.00,Wunderground v.1.15,2013-12-16 05:35:00,
2013-12-16 00:39:00,29.3,25.4,30.24,NNW,327,5.0,6.0,85,0.00,,,0.00,Wunderground v.1.15,2013-12-16 05:39:00,
2013-12-16 00:40:00,29.3,25.4,30.24,NNW,327,4.0,4.0,85,0.00,,,0.00,Wunderground v.1.15,2013-12-16 05:40:00,
2013-12-16 00:41:00,29.3,25.4,30.24,NW,313,4.0,4.0,85,0.00,,,0.00,Wunderground v.1.15,2013-12-16 05:41:00,
2013-12-16 00:44:00,29.3,25.4,30.24,NNW,329,4.0,4.0,85,0.00,,,0.00,Wunderground v.1.15,2013-12-16 05:44:00,
2013-12-16 00:47:00,29.2,25.3,30.24,NNW,329,3.0,4.0,85,0.00,,,0.00,Wunderground v.1.15,2013-12-16 05:47:00,
2013-12-16 00:49:00,29.2,25.3,30.24,West,268,2.0,4.0,85,0.00,,,0.00,Wunderground v.1.15,2013-12-16 05:49:00,
2013-12-16 00:50:00,29.1,25.2,30.24,West,268,2.0,2.0,85,0.00,,,0.00,Wunderground v.1.15,2013-12-16 05:50:00,
2013-12-16 00:52:00,29.0,25.3,30.25,West,268,2.0,2.0,86,0.00,,,0.00,Wunderground v.1.15,2013-12-16 05:52:00,
2013-12-16 00:53:00,29.0,25.3,30.25,West,269,1.0,4.0,86,0.00,,,0.00,Wunderground v.1.15,2013-12-16 05:53:00,
2013-12-16 00:56:00,29.0,25.3,30.25,WNW,288,2.0,4.0,86,0.00,,,0.00,Wunderground v.1.15,2013-12-16 05:56:00,
2013-12-16 00:59:00,29.0,25.3,30.25,NW,304,2.0,4.0,86,0.00,,,0.00,Wunderground v.1.15,2013-12-16 05:59:00,
2013-12-16 01:00:00,29.0,25.3,30.25,NW,304,2.0,2.0,86,0.00,,,0.00,Wunderground v.1.15,2013-12-16 06:00:00,
2013-12-16 01:02:00,29.0,25.3,30.24,NW,304,2.0,7.0,86,0.00,,,0.00,Wunderground v.1.15,2013-12-16 06:02:00,
2013-12-16 01:04:00,29.0,25.3,30.25,NW,304,2.0,7.0,86,0.00,,,0.00,Wunderground v.1.15,2013-12-16 06:04:00,
2013-12-16 01:07:00,28.9,25.2,30.25,NW,304,1.0,7.0,86,0.00,,,0.00,Wunderground v.1.15,2013-12-16 06:07:00,
2013-12-16 01:09:00,28.8,25.1,30.24,NW,304,1.0,7.0,86,0.00,,,0.00,Wunderground v.1.15,2013-12-16 06:09:00,
2013-12-16 01:10:00,28.8,25.1,30.24,NW,304,1.0,7.0,86,0.00,,,0.00,Wunderground v.1.15,2013-12-16 06:10:00,
2013-12-16 01:13:00,28.7,25.0,30.24,NW,304,1.0,7.0,86,0.00,,,0.00,Wunderground v.1.15,2013-12-16 06:13:00,
2013-12-16 01:14:00,28.6,25.2,30.24,NW,304,1.0,7.0,87,0.00,,,0.00,Wunderground v.1.15,2013-12-16 06:14:00,
2013-12-16 01:16:00,28.7,25.3,30.24,NW,304,1.0,7.0,87,0.00,,,0.00,Wunderground v.1.15,2013-12-16 06:16:00,
2013-12-16 01:17:00,28.8,25.4,30.24,NW,304,1.0,7.0,87,0.00,,,0.00,Wunderground v.1.15,2013-12-16 06:17:00,
2013-12-16 01:20:00,29.2,25.5,30.24,West,268,1.0,7.0,86,0.00,,,0.00,Wunderground v.1.15,2013-12-16 06:20:00,
2013-12-16 01:21:00,29.3,25.6,30.24,West,269,1.0,7.0,86,0.00,,,0.00,Wunderground v.1.15,2013-12-16 06:21:00,
2013-12-16 01:26:00,29.5,25.5,30.24,WNW,286,2.0,7.0,85,0.00,,,0.00,Wunderground v.1.15,2013-12-16 06:26:00,
2013-12-16 01:27:00,29.5,25.5,30.24,WNW,287,2.0,7.0,85,0.00,,,0.00,Wunderground v.1.15,2013-12-16 06:27:00,
2013-12-16 01:30:00,29.4,25.2,30.24,WNW,288,2.0,2.0,84,0.00,,,0.00,Wunderground v.1.15,2013-12-16 06:30:00,
2013-12-16 01:31:00,29.3,25.4,30.24,WNW,288,2.0,7.0,85,0.00,,,0.00,Wunderground v.1.15,2013-12-16 06:31:00,
2013-12-16 01:32:00,29.2,25.3,30.24,WNW,288,2.0,7.0,85,0.00,,,0.00,Wunderground v.1.15,2013-12-16 06:32:00,
2013-12-16 01:35:00,28.7,25.0,30.24,WNW,288,2.0,7.0,86,0.00,,,0.00,Wunderground v.1.15,2013-12-16 06:35:00,
2013-12-16 01:36:00,28.6,24.9,30.25,West,277,2.0,7.0,86,0.00,,,0.00,Wunderground v.1.15,2013-12-16 06:36:00,
2013-12-16 01:38:00,28.4,24.7,30.25,West,276,2.0,7.0,86,0.00,,,0.00,Wunderground v.1.15,2013-12-16 06:38:00,
2013-12-16 01:42:00,28.1,25.0,30.25,WSW,246,2.0,7.0,88,0.00,,,0.00,Wunderground v.1.15,2013-12-16 06:42:00,
2013-12-16 01:43:00,28.1,25.0,30.25,WSW,246,2.0,7.0,88,0.00,,,0.00,Wunderground v.1.15,2013-12-16 06:43:00,
2013-12-16 01:44:00,28.1,25.0,30.25,WSW,246,2.0,7.0,88,0.00,,,0.00,Wunderground v.1.15,2013-12-16 06:44:00,
2013-12-16 01:46:00,28.1,25.0,30.25,WSW,246,2.0,7.0,88,0.00,,,0.00,Wunderground v.1.15,2013-12-16 06:46:00,
2013-12-16 01:48:00,28.1,25.0,30.25,WSW,246,2.0,7.0,88,0.00,,,0.00,Wunderground v.1.15,2013-12-16 06:48:00,
2013-12-16 01:49:00,28.1,25.0,30.25,WSW,246,2.0,7.0,88,0.00,,,0.00,Wunderground v.1.15,2013-12-16 06:49:00,
2013-12-16 01:51:00,28.1,25.0,30.25,WSW,246,1.0,7.0,88,0.00,,,0.00,Wunderground v.1.15,2013-12-16 06:51:00,
2013-12-16 01:52:00,28.1,25.0,30.25,WSW,246,1.0,7.0,88,0.00,,,0.00,Wunderground v.1.15,2013-12-16 06:52:00,
2013-12-16 01:53:00,28.0,24.9,30.25,WSW,246,1.0,7.0,88,0.00,,,0.00,Wunderground v.1.15,2013-12-16 06:53:00,
2013-12-16 01:54:00,28.0,24.9,30.25,WSW,246,1.0,7.0,88,0.00,,,0.00,Wunderground v.1.15,2013-12-16 06:54:00,
2013-12-16 01:55:00,28.0,24.9,30.25,WSW,246,0.0,7.0,88,0.00,,,0.00,Wunderground v.1.15,2013-12-16 06:55:00,
2013-12-16 01:56:00,28.0,25.2,30.25,WSW,246,0.0,7.0,89,0.00,,,0.00,Wunderground v.1.15,2013-12-16 06:56:00,
2013-12-16 01:57:00,28.0,24.9,30.25,WSW,246,0.0,7.0,88,0.00,,,0.00,Wunderground v.1.15,2013-12-16 06:57:00,
2013-12-16 01:58:00,28.0,24.9,30.25,WSW,246,0.0,7.0,88,0.00,,,0.00,Wunderground v.1.15,2013-12-16 06:58:00,
2013-12-16 02:00:00,27.9,24.8,30.25,WSW,246,0.0,7.0,88,0.00,,,0.00,Wunderground v.1.15,2013-12-16 07:00:00,
2013-12-16 02:03:00,27.8,25.0,30.25,WSW,246,1.0,7.0,89,0.00,,,0.00,Wunderground v.1.15,2013-12-16 07:03:00,
2013-12-16 02:04:00,27.8,25.0,30.25,WSW,246,1.0,7.0,89,0.00,,,0.00,Wunderground v.1.15,2013-12-16 07:04:00,
2013-12-16 02:05:00,27.8,25.0,30.25,WSW,246,1.0,7.0,89,0.00,,,0.00,Wunderground v.1.15,2013-12-16 07:05:00,
2013-12-16 02:07:00,27.7,24.9,30.26,WSW,246,1.0,7.0,89,0.00,,,0.00,Wunderground v.1.15,2013-12-16 07:07:00,
2013-12-16 02:09:00,27.6,24.8,30.25,WSW,246,2.0,7.0,89,0.00,,,0.00,Wunderground v.1.15,2013-12-16 07:09:00,
2013-12-16 02:12:00,27.4,24.6,30.26,WSW,246,1.0,7.0,89,0.00,,,0.00,Wunderground v.1.15,2013-12-16 07:12:00,
2013-12-16 02:13:00,27.4,24.6,30.26,WSW,246,1.0,7.0,89,0.00,,,0.00,Wunderground v.1.15,2013-12-16 07:13:00,
2013-12-16 02:14:00,27.3,24.5,30.26,WSW,246,1.0,7.0,89,0.00,,,0.00,Wunderground v.1.15,2013-12-16 07:14:00,
2013-12-16 02:15:00,27.2,24.4,30.26,WSW,245,1.0,7.0,89,0.00,,,0.00,Wunderground v.1.15,2013-12-16 07:15:00,
2013-12-16 02:18:00,27.2,24.7,30.26,WSW,245,1.0,7.0,90,0.00,,,0.00,Wunderground v.1.15,2013-12-16 07:18:00,
2013-12-16 02:20:00,27.2,24.7,30.26,WSW,245,1.0,7.0,90,0.00,,,0.00,Wunderground v.1.15,2013-12-16 07:20:00,
2013-12-16 02:21:00,27.2,24.7,30.26,WSW,245,1.0,7.0,90,0.00,,,0.00,Wunderground v.1.15,2013-12-16 07:21:00,
2013-12-16 02:24:00,27.2,24.7,30.26,WSW,245,1.0,7.0,90,0.00,,,0.00,Wunderground v.1.15,2013-12-16 07:24:00,
2013-12-16 02:26:00,27.1,24.6,30.26,WSW,245,1.0,7.0,90,0.00,,,0.00,Wunderground v.1.15,2013-12-16 07:26:00,
2013-12-16 02:29:00,27.1,24.6,30.26,WSW,245,0.0,7.0,90,0.00,,,0.00,Wunderground v.1.15,2013-12-16 07:29:00,
2013-12-16 02:33:00,27.0,24.5,30.26,WSW,245,0.0,7.0,90,0.00,,,0.00,Wunderground v.1.15,2013-12-16 07:33:00,
2013-12-16 02:35:00,26.9,24.4,30.26,WSW,245,0.0,7.0,90,0.00,,,0.00,Wunderground v.1.15,2013-12-16 07:35:00,
2013-12-16 02:36:00,26.9,24.4,30.26,WSW,245,0.0,7.0,90,0.00,,,0.00,Wunderground v.1.15,2013-12-16 07:36:00,
2013-12-16 02:40:00,26.9,24.6,30.26,WSW,245,0.0,7.0,91,0.00,,,0.00,Wunderground v.1.15,2013-12-16 07:40:00,
2013-12-16 02:42:00,26.9,24.6,30.26,WSW,245,0.0,7.0,91,0.00,,,0.00,Wunderground v.1.15,2013-12-16 07:42:00,
2013-12-16 02:43:00,26.9,24.6,30.26,WSW,245,0.0,7.0,91,0.00,,,0.00,Wunderground v.1.15,2013-12-16 07:43:00,
2013-12-16 02:44:00,26.9,24.6,30.26,WSW,245,0.0,7.0,91,0.00,,,0.00,Wunderground v.1.15,2013-12-16 07:44:00,
2013-12-16 02:45:00,26.9,24.6,30.26,WSW,245,0.0,7.0,91,0.00,,,0.00,Wunderground v.1.15,2013-12-16 07:45:00,
2013-12-16 02:47:00,26.9,24.6,30.27,WSW,245,0.0,7.0,91,0.00,,,0.00,Wunderground v.1.15,2013-12-16 07:47:00,
2013-12-16 02:49:00,26.9,24.6,30.27,WSW,245,0.0,7.0,91,0.00,,,0.00,Wunderground v.1.15,2013-12-16 07:49:00,
2013-12-16 02:50:00,26.8,24.5,30.27,WSW,245,0.0,7.0,91,0.00,,,0.00,Wunderground v.1.15,2013-12-16 07:50:00,
2013-12-16 02:52:00,26.7,24.4,30.27,WSW,245,0.0,7.0,91,0.00,,,0.00,Wunderground v.1.15,2013-12-16 07:52:00,
2013-12-16 02:54:00,26.6,24.3,30.27,WSW,245,0.0,7.0,91,0.00,,,0.00,Wunderground v.1.15,2013-12-16 07:54:00,
2013-12-16 02:56:00,26.5,24.2,30.27,WSW,245,0.0,7.0,91,0.00,,,0.00,Wunderground v.1.15,2013-12-16 07:56:00,
2013-12-16 02:57:00,26.5,24.2,30.26,WSW,245,0.0,7.0,91,0.00,,,0.00,Wunderground v.1.15,2013-12-16 07:57:00,
2013-12-16 02:59:00,26.3,24.0,30.27,WSW,245,0.0,7.0,91,0.00,,,0.00,Wunderground v.1.15,2013-12-16 07:59:00,
2013-12-16 03:00:00,26.3,24.0,30.27,WSW,245,1.0,7.0,91,0.00,,,0.00,Wunderground v.1.15,2013-12-16 08:00:00,
2013-12-16 03:03:00,26.2,24.2,30.27,WSW,245,1.0,7.0,92,0.00,,,0.00,Wunderground v.1.15,2013-12-16 08:03:00,
2013-12-16 03:05:00,26.1,24.1,30.27,WSW,245,1.0,7.0,92,0.00,,,0.00,Wunderground v.1.15,2013-12-16 08:05:00,
2013-12-16 03:06:00,26.1,24.1,30.27,WSW,245,1.0,7.0,92,0.00,,,0.00,Wunderground v.1.15,2013-12-16 08:06:00,
2013-12-16 03:08:00,26.1,24.1,30.27,WSW,245,1.0,7.0,92,0.00,,,0.00,Wunderground v.1.15,2013-12-16 08:08:00,
2013-12-16 03:09:00,26.1,24.1,30.27,WSW,245,1.0,7.0,92,0.00,,,0.00,Wunderground v.1.15,2013-12-16 08:09:00,
2013-12-16 03:11:00,26.1,24.1,30.27,WSW,245,1.0,7.0,92,0.00,,,0.00,Wunderground v.1.15,2013-12-16 08:11:00,
2013-12-16 03:12:00,26.1,24.1,30.27,WSW,245,0.0,7.0,92,0.00,,,0.00,Wunderground v.1.15,2013-12-16 08:12:00,
2013-12-16 03:14:00,26.0,24.0,30.27,WSW,245,0.0,7.0,92,0.00,,,0.00,Wunderground v.1.15,2013-12-16 08:14:00,
2013-12-16 03:17:00,25.9,23.9,30.27,WSW,245,0.0,7.0,92,0.00,,,0.00,Wunderground v.1.15,2013-12-16 08:17:00,
2013-12-16 03:19:00,25.9,23.9,30.27,WSW,245,0.0,7.0,92,0.00,,,0.00,Wunderground v.1.15,2013-12-16 08:19:00,
2013-12-16 03:21:00,25.8,23.8,30.27,WSW,245,0.0,7.0,92,0.00,,,0.00,Wunderground v.1.15,2013-12-16 08:21:00,
2013-12-16 03:23:00,25.8,23.8,30.27,WSW,245,0.0,7.0,92,0.00,,,0.00,Wunderground v.1.15,2013-12-16 08:23:00,
2013-12-16 03:25:00,25.7,23.7,30.27,WSW,245,0.0,7.0,92,0.00,,,0.00,Wunderground v.1.15,2013-12-16 08:25:00,
2013-12-16 03:27:00,25.6,23.6,30.27,WSW,245,0.0,7.0,92,0.00,,,0.00,Wunderground v.1.15,2013-12-16 08:27:00,
2013-12-16 03:28:00,25.6,23.6,30.27,WSW,245,0.0,7.0,92,0.00,,,0.00,Wunderground v.1.15,2013-12-16 08:28:00,
2013-12-16 03:29:00,25.6,23.9,30.27,WSW,245,0.0,7.0,93,0.00,,,0.00,Wunderground v.1.15,2013-12-16 08:29:00,
2013-12-16 03:31:00,25.7,24.0,30.27,WSW,245,1.0,7.0,93,0.00,,,0.00,Wunderground v.1.15,2013-12-16 08:31:00,
2013-12-16 03:33:00,25.7,24.0,30.27,WSW,245,0.0,7.0,93,0.00,,,0.00,Wunderground v.1.15,2013-12-16 08:33:00,
2013-12-16 03:34:00,25.7,24.0,30.27,WSW,245,1.0,7.0,93,0.00,,,0.00,Wunderground v.1.15,2013-12-16 08:34:00,
2013-12-16 03:36:00,25.9,24.2,30.27,WSW,245,1.0,7.0,93,0.00,,,0.00,Wunderground v.1.15,2013-12-16 08:36:00,
2013-12-16 03:38:00,26.0,24.3,30.27,WSW,245,1.0,7.0,93,0.00,,,0.00,Wunderground v.1.15,2013-12-16 08:38:00,
2013-12-16 03:41:00,26.2,24.5,30.27,WSW,245,1.0,7.0,93,0.00,,,0.00,Wunderground v.1.15,2013-12-16 08:41:00,
2013-12-16 03:43:00,26.2,24.5,30.27,WSW,245,1.0,7.0,93,0.00,,,0.00,Wunderground v.1.15,2013-12-16 08:43:00,
2013-12-16 03:46:00,26.2,24.5,30.27,WSW,244,1.0,7.0,93,0.00,,,0.00,Wunderground v.1.15,2013-12-16 08:46:00,
2013-12-16 03:47:00,26.2,24.5,30.27,WSW,244,1.0,7.0,93,0.00,,,0.00,Wunderground v.1.15,2013-12-16 08:47:00,
2013-12-16 03:48:00,26.3,24.6,30.27,WSW,244,1.0,7.0,93,0.00,,,0.00,Wunderground v.1.15,2013-12-16 08:48:00,
2013-12-16 03:49:00,26.3,24.6,30.27,WSW,244,1.0,7.0,93,0.00,,,0.00,Wunderground v.1.15,2013-12-16 08:49:00,
2013-12-16 03:51:00,26.4,24.7,30.27,WSW,244,1.0,7.0,93,0.00,,,0.00,Wunderground v.1.15,2013-12-16 08:51:00,
2013-12-16 03:53:00,26.4,24.7,30.27,WSW,244,1.0,7.0,93,0.00,,,0.00,Wunderground v.1.15,2013-12-16 08:53:00,
2013-12-16 03:55:00,26.4,24.7,30.27,WSW,244,1.0,7.0,93,0.00,,,0.00,Wunderground v.1.15,2013-12-16 08:55:00,
2013-12-16 03:57:00,26.4,24.4,30.27,WSW,244,1.0,7.0,92,0.00,,,0.00,Wunderground v.1.15,2013-12-16 08:57:00,
2013-12-16 03:58:00,26.4,24.4,30.27,WSW,244,1.0,7.0,92,0.00,,,0.00,Wunderground v.1.15,2013-12-16 08:58:00,
2013-12-16 03:59:00,26.4,24.4,30.27,WSW,244,0.0,7.0,92,0.00,,,0.00,Wunderground v.1.15,2013-12-16 08:59:00,
2013-12-16 04:00:00,26.4,24.4,30.27,WSW,244,0.0,7.0,92,0.00,,,0.00,Wunderground v.1.15,2013-12-16 09:00:00,
2013-12-16 04:02:00,26.4,24.4,30.27,WSW,244,0.0,7.0,92,0.00,,,0.00,Wunderground v.1.15,2013-12-16 09:02:00,
2013-12-16 04:03:00,26.4,24.4,30.27,WSW,244,0.0,7.0,92,0.00,,,0.00,Wunderground v.1.15,2013-12-16 09:03:00,
2013-12-16 04:05:00,26.3,24.3,30.27,WSW,244,1.0,7.0,92,0.00,,,0.00,Wunderground v.1.15,2013-12-16 09:05:00,
2013-12-16 04:06:00,26.3,24.3,30.27,WSW,244,1.0,7.0,92,0.00,,,0.00,Wunderground v.1.15,2013-12-16 09:06:00,
2013-12-16 04:07:00,26.3,24.3,30.27,WSW,244,1.0,7.0,92,0.00,,,0.00,Wunderground v.1.15,2013-12-16 09:07:00,
2013-12-16 04:11:00,26.2,24.2,30.27,WSW,244,1.0,7.0,92,0.00,,,0.00,Wunderground v.1.15,2013-12-16 09:11:00,
2013-12-16 04:12:00,26.2,24.2,30.27,WSW,244,0.0,7.0,92,0.00,,,0.00,Wunderground v.1.15,2013-12-16 09:12:00,
2013-12-16 04:14:00,26.1,24.1,30.27,WSW,244,0.0,7.0,92,0.00,,,0.00,Wunderground v.1.15,2013-12-16 09:14:00,
2013-12-16 04:16:00,25.9,23.9,30.27,WSW,244,0.0,7.0,92,0.00,,,0.00,Wunderground v.1.15,2013-12-16 09:16:00,
2013-12-16 04:17:00,25.9,23.9,30.27,WSW,238,0.0,7.0,92,0.00,,,0.00,Wunderground v.1.15,2013-12-16 09:17:00,
2013-12-16 04:18:00,25.8,23.8,30.27,SSW,197,1.0,7.0,92,0.00,,,0.00,Wunderground v.1.15,2013-12-16 09:18:00,
2013-12-16 04:19:00,25.7,23.7,30.27,SSW,197,1.0,7.0,92,0.00,,,0.00,Wunderground v.1.15,2013-12-16 09:19:00,
2013-12-16 04:23:00,25.6,23.9,30.27,SSW,197,1.0,7.0,93,0.00,,,0.00,Wunderground v.1.15,2013-12-16 09:23:00,
2013-12-16 04:25:00,25.6,23.9,30.27,SSW,197,1.0,7.0,93,0.00,,,0.00,Wunderground v.1.15,2013-12-16 09:25:00,
2013-12-16 04:27:00,25.6,23.9,30.27,SSW,197,1.0,7.0,93,0.00,,,0.00,Wunderground v.1.15,2013-12-16 09:27:00,
2013-12-16 04:28:00,25.6,23.9,30.27,SSW,197,0.0,7.0,93,0.00,,,0.00,Wunderground v.1.15,2013-12-16 09:28:00,
2013-12-16 04:30:00,25.6,23.9,30.28,SSW,197,0.0,7.0,93,0.00,,,0.00,Wunderground v.1.15,2013-12-16 09:30:00,
2013-12-16 04:33:00,25.6,23.9,30.28,SSW,197,0.0,7.0,93,0.00,,,0.00,Wunderground v.1.15,2013-12-16 09:33:00,
2013-12-16 04:34:00,25.6,23.9,30.27,SSW,197,0.0,7.0,93,0.00,,,0.00,Wunderground v.1.15,2013-12-16 09:34:00,
2013-12-16 04:35:00,25.6,23.9,30.27,SSW,197,0.0,7.0,93,0.00,,,0.00,Wunderground v.1.15,2013-12-16 09:35:00,
2013-12-16 04:40:00,25.6,23.9,30.27,SSW,197,1.0,7.0,93,0.00,,,0.00,Wunderground v.1.15,2013-12-16 09:40:00,
2013-12-16 04:41:00,25.6,23.9,30.27,SSW,197,1.0,7.0,93,0.00,,,0.00,Wunderground v.1.15,2013-12-16 09:41:00,
2013-12-16 04:43:00,25.6,23.9,30.27,SSW,197,1.0,7.0,93,0.00,,,0.00,Wunderground v.1.15,2013-12-16 09:43:00,
2013-12-16 04:45:00,25.5,23.8,30.28,SSW,197,1.0,7.0,93,0.00,,,0.00,Wunderground v.1.15,2013-12-16 09:45:00,
2013-12-16 04:49:00,25.2,23.5,30.28,SSW,197,0.0,7.0,93,0.00,,,0.00,Wunderground v.1.15,2013-12-16 09:49:00,
2013-12-16 04:51:00,25.2,23.5,30.28,SSW,197,0.0,7.0,93,0.00,,,0.00,Wunderground v.1.15,2013-12-16 09:51:00,
2013-12-16 04:52:00,25.2,23.5,30.28,SSW,197,0.0,7.0,93,0.00,,,0.00,Wunderground v.1.15,2013-12-16 09:52:00,
2013-12-16 04:53:00,25.2,23.5,30.28,SSW,197,0.0,7.0,93,0.00,,,0.00,Wunderground v.1.15,2013-12-16 09:53:00,
2013-12-16 04:55:00,25.2,23.5,30.28,SSW,197,0.0,7.0,93,0.00,,,0.00,Wunderground v.1.15,2013-12-16 09:55:00,
2013-12-16 04:56:00,25.2,23.5,30.28,SSW,197,0.0,7.0,93,0.00,,,0.00,Wunderground v.1.15,2013-12-16 09:56:00,
2013-12-16 05:00:00,25.1,23.6,30.28,SSW,197,0.0,7.0,94,0.00,,,0.00,Wunderground v.1.15,2013-12-16 10:00:00,
2013-12-16 05:01:00,25.1,23.6,30.28,SSW,197,0.0,7.0,94,0.00,,,0.00,Wunderground v.1.15,2013-12-16 10:01:00,
2013-12-16 05:02:00,25.1,23.6,30.28,SSW,197,0.0,7.0,94,0.00,,,0.00,Wunderground v.1.15,2013-12-16 10:02:00,
2013-12-16 05:03:00,25.0,23.5,30.28,SSW,197,0.0,7.0,94,0.00,,,0.00,Wunderground v.1.15,2013-12-16 10:03:00,
2013-12-16 05:04:00,25.0,23.5,30.28,SSW,197,0.0,7.0,94,0.00,,,0.00,Wunderground v.1.15,2013-12-16 10:04:00,
2013-12-16 05:08:00,24.9,23.2,30.28,SSW,197,0.0,7.0,93,0.00,,,0.00,Wunderground v.1.15,2013-12-16 10:08:00,
2013-12-16 05:10:00,24.8,23.3,30.28,SSW,197,0.0,7.0,94,0.00,,,0.00,Wunderground v.1.15,2013-12-16 10:10:00,
2013-12-16 05:11:00,24.8,23.3,30.28,SSW,197,0.0,7.0,94,0.00,,,0.00,Wunderground v.1.15,2013-12-16 10:11:00,
2013-12-16 05:13:00,24.8,23.3,30.28,SSW,197,0.0,7.0,94,0.00,,,0.00,Wunderground v.1.15,2013-12-16 10:13:00,
2013-12-16 05:14:00,24.8,23.3,30.28,SSW,197,0.0,7.0,94,0.00,,,0.00,Wunderground v.1.15,2013-12-16 10:14:00,
2013-12-16 05:18:00,24.7,23.2,30.28,SSW,197,0.0,7.0,94,0.00,,,0.00,Wunderground v.1.15,2013-12-16 10:18:00,
2013-12-16 05:19:00,24.6,23.1,30.28,SSW,197,0.0,7.0,94,0.00,,,0.00,Wunderground v.1.15,2013-12-16 10:19:00,
2013-12-16 05:20:00,24.6,23.1,30.28,SSW,197,0.0,7.0,94,0.00,,,0.00,Wunderground v.1.15,2013-12-16 10:20:00,
2013-12-16 05:21:00,24.6,23.1,30.28,SSW,197,0.0,7.0,94,0.00,,,0.00,Wunderground v.1.15,2013-12-16 10:21:00,
2013-12-16 05:23:00,24.6,23.1,30.28,SSW,197,0.0,7.0,94,0.00,,,0.00,Wunderground v.1.15,2013-12-16 10:23:00,
2013-12-16 05:24:00,24.6,23.1,30.28,SSW,197,0.0,7.0,94,0.00,,,0.00,Wunderground v.1.15,2013-12-16 10:24:00,
2013-12-16 05:25:00,24.6,23.1,30.29,SSW,197,0.0,7.0,94,0.00,,,0.00,Wunderground v.1.15,2013-12-16 10:25:00,
2013-12-16 05:26:00,24.6,23.1,30.29,SSW,197,0.0,7.0,94,0.00,,,0.00,Wunderground v.1.15,2013-12-16 10:26:00,
2013-12-16 05:28:00,24.6,23.1,30.29,SSW,197,0.0,7.0,94,0.00,,,0.00,Wunderground v.1.15,2013-12-16 10:28:00,
2013-12-16 05:31:00,24.5,23.3,30.28,SSW,197,0.0,7.0,95,0.00,,,0.00,Wunderground v.1.15,2013-12-16 10:31:00,
2013-12-16 05:32:00,24.6,23.4,30.28,SSW,197,0.0,7.0,95,0.00,,,0.00,Wunderground v.1.15,2013-12-16 10:32:00,
2013-12-16 05:33:00,24.5,23.0,30.28,SSW,197,0.0,7.0,94,0.00,,,0.00,Wunderground v.1.15,2013-12-16 10:33:00,
2013-12-16 05:35:00,24.5,23.3,30.29,SSW,197,0.0,7.0,95,0.00,,,0.00,Wunderground v.1.15,2013-12-16 10:35:00,
2013-12-16 05:37:00,24.5,23.3,30.29,SSW,197,0.0,7.0,95,0.00,,,0.00,Wunderground v.1.15,2013-12-16 10:37:00,
2013-12-16 05:38:00,24.6,23.4,30.29,SSW,197,0.0,7.0,95,0.00,,,0.00,Wunderground v.1.15,2013-12-16 10:38:00,
2013-12-16 05:40:00,24.5,23.3,30.29,SSW,197,0.0,7.0,95,0.00,,,0.00,Wunderground v.1.15,2013-12-16 10:40:00,
2013-12-16 05:41:00,24.5,23.3,30.29,SSW,197,0.0,7.0,95,0.00,,,0.00,Wunderground v.1.15,2013-12-16 10:41:00,
2013-12-16 05:43:00,24.6,23.4,30.29,SSW,197,0.0,7.0,95,0.00,,,0.00,Wunderground v.1.15,2013-12-16 10:43:00,
2013-12-16 05:44:00,24.6,23.4,30.29,SSW,197,0.0,7.0,95,0.00,,,0.00,Wunderground v.1.15,2013-12-16 10:44:00,
2013-12-16 05:46:00,24.6,23.4,30.29,SSW,197,0.0,7.0,95,0.00,,,0.00,Wunderground v.1.15,2013-12-16 10:46:00,
2013-12-16 05:47:00,24.7,23.5,30.28,SSW,197,0.0,7.0,95,0.00,,,0.00,Wunderground v.1.15,2013-12-16 10:47:00,
2013-12-16 05:48:00,24.7,23.5,30.29,SSW,197,0.0,7.0,95,0.00,,,0.00,Wunderground v.1.15,2013-12-16 10:48:00,
2013-12-16 05:49:00,24.7,23.5,30.28,SSW,197,0.0,7.0,95,0.00,,,0.00,Wunderground v.1.15,2013-12-16 10:49:00,
2013-12-16 05:53:00,24.8,23.6,30.29,SSW,197,0.0,7.0,95,0.00,,,0.00,Wunderground v.1.15,2013-12-16 10:53:00,
2013-12-16 05:55:00,24.8,23.6,30.29,SSW,197,0.0,7.0,95,0.00,,,0.00,Wunderground v.1.15,2013-12-16 10:55:00,
2013-12-16 05:56:00,24.8,23.6,30.29,SSW,197,0.0,7.0,95,0.00,,,0.00,Wunderground v.1.15,2013-12-16 10:56:00,
2013-12-16 05:57:00,24.8,23.6,30.29,SSW,197,0.0,7.0,95,0.00,,,0.00,Wunderground v.1.15,2013-12-16 10:57:00,
2013-12-16 05:58:00,24.8,23.6,30.29,SSW,197,0.0,7.0,95,0.00,,,0.00,Wunderground v.1.15,2013-12-16 10:58:00,
2013-12-16 05:59:00,24.8,23.6,30.29,SSW,197,0.0,7.0,95,0.00,,,0.00,Wunderground v.1.15,2013-12-16 10:59:00,
2013-12-16 06:02:00,24.8,23.6,30.29,SSW,197,0.0,7.0,95,0.00,,,0.00,Wunderground v.1.15,2013-12-16 11:02:00,
2013-12-16 06:04:00,24.7,23.5,30.29,SSW,197,0.0,7.0,95,0.00,,,0.00,Wunderground v.1.15,2013-12-16 11:04:00,
2013-12-16 06:05:00,24.7,23.5,30.29,SSW,197,0.0,7.0,95,0.00,,,0.00,Wunderground v.1.15,2013-12-16 11:05:00,
2013-12-16 06:08:00,24.6,23.4,30.29,SSW,197,0.0,7.0,95,0.00,,,0.00,Wunderground v.1.15,2013-12-16 11:08:00,
2013-12-16 06:09:00,24.6,23.4,30.28,SSW,197,0.0,7.0,95,0.00,,,0.00,Wunderground v.1.15,2013-12-16 11:09:00,
2013-12-16 06:10:00,24.5,23.3,30.28,SSW,197,0.0,7.0,95,0.00,,,0.00,Wunderground v.1.15,2013-12-16 11:10:00,
2013-12-16 06:11:00,24.5,23.3,30.29,SSW,197,0.0,7.0,95,0.00,,,0.00,Wunderground v.1.15,2013-12-16 11:11:00,
2013-12-16 06:14:00,24.4,23.2,30.28,SSW,197,0.0,7.0,95,0.00,,,0.00,Wunderground v.1.15,2013-12-16 11:14:00,
2013-12-16 06:15:00,24.3,22.8,30.28,SSW,197,0.0,7.0,94,0.00,,,0.00,Wunderground v.1.15,2013-12-16 11:15:00,
2013-12-16 06:16:00,24.3,22.8,30.29,SSW,197,0.0,7.0,94,0.00,,,0.00,Wunderground v.1.15,2013-12-16 11:16:00,
2013-12-16 06:19:00,24.2,22.7,30.28,SSW,197,0.0,7.0,94,0.00,,,0.00,Wunderground v.1.15,2013-12-16 11:19:00,
2013-12-16 06:20:00,24.1,22.6,30.29,SSW,197,0.0,7.0,94,0.00,,,0.00,Wunderground v.1.15,2013-12-16 11:20:00,
2013-12-16 06:21:00,24.0,22.5,30.29,SSW,197,0.0,7.0,94,0.00,,,0.00,Wunderground v.1.15,2013-12-16 11:21:00,
2013-12-16 06:23:00,24.0,22.8,30.29,SSW,197,0.0,7.0,95,0.00,,,0.00,Wunderground v.1.15,2013-12-16 11:23:00,
2013-12-16 06:25:00,24.0,22.8,30.29,SSW,197,0.0,7.0,95,0.00,,,0.00,Wunderground v.1.15,2013-12-16 11:25:00,
2013-12-16 06:26:00,23.9,22.7,30.29,SSW,197,0.0,7.0,95,0.00,,,0.00,Wunderground v.1.15,2013-12-16 11:26:00,
2013-12-16 06:28:00,23.9,22.7,30.29,SSW,197,0.0,7.0,95,0.00,,,0.00,Wunderground v.1.15,2013-12-16 11:28:00,
2013-12-16 06:29:00,23.8,22.3,30.29,SSW,197,0.0,7.0,94,0.00,,,0.00,Wunderground v.1.15,2013-12-16 11:29:00,
2013-12-16 06:30:00,23.8,22.3,30.29,SSW,197,0.0,7.0,94,0.00,,,0.00,Wunderground v.1.15,2013-12-16 11:30:00,
2013-12-16 06:33:00,23.7,22.5,30.29,SSW,197,0.0,7.0,95,0.00,,,0.00,Wunderground v.1.15,2013-12-16 11:33:00,
2013-12-16 06:34:00,23.7,22.5,30.29,SSW,197,0.0,7.0,95,0.00,,,0.00,Wunderground v.1.15,2013-12-16 11:34:00,
2013-12-16 06:35:00,23.7,22.5,30.29,SSW,197,0.0,7.0,95,0.00,,,0.00,Wunderground v.1.15,2013-12-16 11:35:00,
2013-12-16 06:36:00,23.7,22.5,30.29,SSW,197,0.0,7.0,95,0.00,,,0.00,Wunderground v.1.15,2013-12-16 11:36:00,
2013-12-16 06:39:00,23.5,22.3,30.28,SSW,197,0.0,7.0,95,0.00,,,0.00,Wunderground v.1.15,2013-12-16 11:39:00,
2013-12-16 06:40:00,23.5,22.3,30.29,SSW,197,0.0,7.0,95,0.00,,,0.00,Wunderground v.1.15,2013-12-16 11:40:00,
2013-12-16 06:41:00,23.5,22.3,30.29,SSW,197,0.0,7.0,95,0.00,,,0.00,Wunderground v.1.15,2013-12-16 11:41:00,
2013-12-16 06:42:00,23.5,22.3,30.29,SSW,197,0.0,7.0,95,0.00,,,0.00,Wunderground v.1.15,2013-12-16 11:42:00,
2013-12-16 06:44:00,23.6,22.4,30.29,SSW,197,0.0,7.0,95,0.00,,,0.00,Wunderground v.1.15,2013-12-16 11:44:00,
2013-12-16 06:48:00,23.8,22.8,30.29,SSW,197,1.0,7.0,96,0.00,,,0.00,Wunderground v.1.15,2013-12-16 11:48:00,
2013-12-16 06:49:00,23.8,22.8,30.29,SSW,197,0.0,7.0,96,0.00,,,0.00,Wunderground v.1.15,2013-12-16 11:49:00,
2013-12-16 06:50:00,23.8,22.8,30.29,SSW,197,0.0,7.0,96,0.00,,,0.00,Wunderground v.1.15,2013-12-16 11:50:00,
2013-12-16 06:52:00,23.8,22.6,30.29,SSW,197,0.0,7.0,95,0.00,,,0.00,Wunderground v.1.15,2013-12-16 11:52:00,
2013-12-16 06:55:00,23.7,22.5,30.29,SSW,197,0.0,7.0,95,0.00,,,0.00,Wunderground v.1.15,2013-12-16 11:55:00,
2013-12-16 06:57:00,23.7,22.5,30.29,SSW,197,0.0,7.0,95,0.00,,,0.00,Wunderground v.1.15,2013-12-16 11:57:00,
2013-12-16 06:58:00,23.7,22.5,30.29,SSW,197,0.0,7.0,95,0.00,,,0.00,Wunderground v.1.15,2013-12-16 11:58:00,
2013-12-16 07:03:00,23.7,22.5,30.30,SSW,197,0.0,7.0,95,0.00,,,0.00,Wunderground v.1.15,2013-12-16 12:03:00,
2013-12-16 07:05:00,23.7,22.5,30.30,SSW,195,0.0,7.0,95,0.00,,,0.00,Wunderground v.1.15,2013-12-16 12:05:00,
2013-12-16 07:06:00,23.7,22.7,30.30,SSE,158,0.0,7.0,96,0.00,,,0.00,Wunderground v.1.15,2013-12-16 12:06:00,
2013-12-16 07:10:00,24.0,23.0,30.30,SSE,154,0.0,7.0,96,0.00,,,0.00,Wunderground v.1.15,2013-12-16 12:10:00,
2013-12-16 07:11:00,24.0,23.0,30.30,SSE,154,1.0,7.0,96,0.00,,,0.00,Wunderground v.1.15,2013-12-16 12:11:00,
2013-12-16 07:12:00,24.1,23.1,30.30,SSE,154,1.0,7.0,96,0.00,,,0.00,Wunderground v.1.15,2013-12-16 12:12:00,
2013-12-16 07:13:00,24.2,23.2,30.30,SSE,154,1.0,7.0,96,0.00,,,0.00,Wunderground v.1.15,2013-12-16 12:13:00,
2013-12-16 07:14:00,24.3,23.3,30.30,SSE,154,1.0,7.0,96,0.00,,,0.00,Wunderground v.1.15,2013-12-16 12:14:00,
2013-12-16 07:17:00,24.4,23.4,30.30,SSE,154,0.0,7.0,96,0.00,,,0.00,Wunderground v.1.15,2013-12-16 12:17:00,
2013-12-16 07:18:00,24.4,23.4,30.30,SSE,154,0.0,7.0,96,0.00,,,0.00,Wunderground v.1.15,2013-12-16 12:18:00,
2013-12-16 07:19:00,24.5,23.5,30.30,SSE,154,0.0,7.0,96,0.00,,,0.00,Wunderground v.1.15,2013-12-16 12:19:00,
2013-12-16 07:21:00,24.5,23.5,30.30,SSE,154,0.0,7.0,96,0.00,,,0.00,Wunderground v.1.15,2013-12-16 12:21:00,
2013-12-16 07:22:00,24.5,23.5,30.30,SSE,154,0.0,7.0,96,0.00,,,0.00,Wunderground v.1.15,2013-12-16 12:22:00,
2013-12-16 07:26:00,24.3,23.1,30.30,SSE,154,0.0,7.0,95,0.00,,,0.00,Wunderground v.1.15,2013-12-16 12:26:00,
2013-12-16 07:27:00,24.3,23.1,30.30,SSE,154,0.0,7.0,95,0.00,,,0.00,Wunderground v.1.15,2013-12-16 12:27:00,
2013-12-16 07:28:00,24.3,23.1,30.30,SSE,154,1.0,7.0,95,0.00,,,0.00,Wunderground v.1.15,2013-12-16 12:28:00,
2013-12-16 07:29:00,24.2,23.0,30.30,SSE,154,1.0,7.0,95,0.00,,,0.00,Wunderground v.1.15,2013-12-16 12:29:00,
2013-12-16 07:30:00,24.2,23.0,30.30,SSE,154,1.0,1.0,95,0.00,,,0.00,Wunderground v.1.15,2013-12-16 12:30:00,
2013-12-16 07:33:00,24.2,23.0,30.30,SSE,154,1.0,7.0,95,0.00,,,0.00,Wunderground v.1.15,2013-12-16 12:33:00,
2013-12-16 07:36:00,24.2,23.0,30.31,SSE,154,1.0,7.0,95,0.00,,,0.00,Wunderground v.1.15,2013-12-16 12:36:00,
2013-12-16 07:37:00,24.2,23.0,30.31,SSE,154,1.0,7.0,95,0.00,,,0.00,Wunderground v.1.15,2013-12-16 12:37:00,
2013-12-16 07:38:00,24.2,23.0,30.31,SSE,154,1.0,7.0,95,0.00,,,0.00,Wunderground v.1.15,2013-12-16 12:38:00,
2013-12-16 07:39:00,24.2,23.0,30.31,SSE,154,1.0,7.0,95,0.00,,,0.00,Wunderground v.1.15,2013-12-16 12:39:00,
2013-12-16 07:40:00,24.2,23.0,30.31,SSE,154,1.0,7.0,95,0.00,,,0.00,Wunderground v.1.15,2013-12-16 12:40:00,
2013-12-16 07:44:00,24.3,23.3,30.31,SSE,154,0.0,7.0,96,0.00,,,0.00,Wunderground v.1.15,2013-12-16 12:44:00,
2013-12-16 07:46:00,24.3,23.3,30.31,SSE,154,0.0,7.0,96,0.00,,,0.00,Wunderground v.1.15,2013-12-16 12:46:00,
2013-12-16 07:47:00,24.4,23.4,30.31,SSE,154,0.0,7.0,96,0.00,,,0.00,Wunderground v.1.15,2013-12-16 12:47:00,
2013-12-16 07:48:00,24.4,23.4,30.31,SSE,154,0.0,7.0,96,0.00,,,0.00,Wunderground v.1.15,2013-12-16 12:48:00,
2013-12-16 07:49:00,24.5,23.3,30.31,SSE,154,1.0,7.0,95,0.00,,,0.00,Wunderground v.1.15,2013-12-16 12:49:00,
2013-12-16 07:50:00,24.5,23.3,30.31,SSE,154,1.0,1.0,95,0.00,,,0.00,Wunderground v.1.15,2013-12-16 12:50:00,
2013-12-16 07:53:00,24.5,23.3,30.31,SSE,154,1.0,7.0,95,0.00,,,0.00,Wunderground v.1.15,2013-12-16 12:53:00,
2013-12-16 07:54:00,24.6,23.4,30.31,SSE,153,1.0,7.0,95,0.00,,,0.00,Wunderground v.1.15,2013-12-16 12:54:00,
2013-12-16 07:55:00,24.6,23.4,30.31,SSE,153,1.0,7.0,95,0.00,,,0.00,Wunderground v.1.15,2013-12-16 12:55:00,
2013-12-16 07:59:00,24.8,23.8,30.31,SSE,153,1.0,7.0,96,0.00,,,0.00,Wunderground v.1.15,2013-12-16 12:59:00,
2013-12-16 08:02:00,24.9,23.7,30.31,SSE,153,1.0,7.0,95,0.00,,,0.00,Wunderground v.1.15,2013-12-16 13:02:00,
2013-12-16 08:05:00,25.0,23.8,30.31,SSE,153,1.0,7.0,95,0.00,,,0.00,Wunderground v.1.15,2013-12-16 13:05:00,
2013-12-16 08:07:00,25.1,24.1,30.32,SSE,153,1.0,7.0,96,0.00,,,0.00,Wunderground v.1.15,2013-12-16 13:07:00,
2013-12-16 08:08:00,25.2,24.2,30.31,SSE,153,1.0,7.0,96,0.00,,,0.00,Wunderground v.1.15,2013-12-16 13:08:00,
2013-12-16 08:10:00,25.3,24.3,30.32,SSE,153,1.0,7.0,96,0.00,,,0.00,Wunderground v.1.15,2013-12-16 13:10:00,
2013-12-16 08:12:00,25.4,24.2,30.32,SSE,153,1.0,7.0,95,0.00,,,0.00,Wunderground v.1.15,2013-12-16 13:12:00,
2013-12-16 08:13:00,25.5,24.3,30.32,SSE,153,1.0,7.0,95,0.00,,,0.00,Wunderground v.1.15,2013-12-16 13:13:00,
2013-12-16 08:17:00,25.8,24.6,30.31,SSE,153,2.0,7.0,95,0.00,,,0.00,Wunderground v.1.15,2013-12-16 13:17:00,
2013-12-16 08:18:00,25.9,24.7,30.31,SE,139,2.0,7.0,95,0.00,,,0.00,Wunderground v.1.15,2013-12-16 13:18:00,
2013-12-16 08:20:00,26.0,24.8,30.31,SE,139,2.0,7.0,95,0.00,,,0.00,Wunderground v.1.15,2013-12-16 13:20:00,
2013-12-16 08:22:00,26.2,25.0,30.32,SE,139,2.0,7.0,95,0.00,,,0.00,Wunderground v.1.15,2013-12-16 13:22:00,
2013-12-16 08:23:00,26.3,25.1,30.32,SE,139,2.0,7.0,95,0.00,,,0.00,Wunderground v.1.15,2013-12-16 13:23:00,
2013-12-16 08:24:00,26.3,25.1,30.32,SE,139,2.0,7.0,95,0.00,,,0.00,Wunderground v.1.15,2013-12-16 13:24:00,
2013-12-16 08:26:00,26.4,25.2,30.32,ESE,123,2.0,7.0,95,0.00,,,0.00,Wunderground v.1.15,2013-12-16 13:26:00,
2013-12-16 08:27:00,26.5,25.3,30.32,SSE,147,2.0,7.0,95,0.00,,,0.00,Wunderground v.1.15,2013-12-16 13:27:00,
2013-12-16 08:28:00,26.6,25.4,30.32,SE,146,2.0,7.0,95,0.00,,,0.00,Wunderground v.1.15,2013-12-16 13:28:00,
2013-12-16 08:30:00,26.8,25.6,30.32,ESE,123,2.0,7.0,95,0.00,,,0.00,Wunderground v.1.15,2013-12-16 13:30:00,
2013-12-16 08:32:00,27.0,25.8,30.32,SE,140,3.0,7.0,95,0.00,,,0.00,Wunderground v.1.15,2013-12-16 13:32:00,
2013-12-16 08:33:00,27.1,25.6,30.32,SSE,147,3.0,7.0,94,0.00,,,0.00,Wunderground v.1.15,2013-12-16 13:33:00,
2013-12-16 08:35:00,27.4,25.9,30.32,SSE,152,3.0,7.0,94,0.00,,,0.00,Wunderground v.1.15,2013-12-16 13:35:00,
2013-12-16 08:37:00,27.6,26.1,30.32,SE,128,3.0,7.0,94,0.00,,,0.00,Wunderground v.1.15,2013-12-16 13:37:00,
2013-12-16 08:38:00,27.8,26.3,30.32,ESE,123,3.0,7.0,94,0.00,,,0.00,Wunderground v.1.15,2013-12-16 13:38:00,
2013-12-16 08:39:00,27.9,26.4,30.32,SE,134,3.0,7.0,94,0.00,,,0.00,Wunderground v.1.15,2013-12-16 13:39:00,
2013-12-16 08:40:00,27.9,26.4,30.32,SE,134,3.0,7.0,94,0.00,,,0.00,Wunderground v.1.15,2013-12-16 13:40:00,
2013-12-16 08:42:00,28.1,26.3,30.32,SE,142,2.0,7.0,93,0.00,,,0.00,Wunderground v.1.15,2013-12-16 13:42:00,
2013-12-16 08:43:00,28.2,26.4,30.32,SSE,149,2.0,7.0,93,0.00,,,0.00,Wunderground v.1.15,2013-12-16 13:43:00,
2013-12-16 08:45:00,28.3,26.5,30.32,SSE,148,3.0,7.0,93,0.00,,,0.00,Wunderground v.1.15,2013-12-16 13:45:00,
2013-12-16 08:46:00,28.4,26.4,30.33,SSE,153,3.0,7.0,92,0.00,,,0.00,Wunderground v.1.15,2013-12-16 13:46:00,
2013-12-16 08:47:00,28.4,26.4,30.33,SE,144,3.0,7.0,92,0.00,,,0.00,Wunderground v.1.15,2013-12-16 13:47:00,
2013-12-16 08:48:00,28.5,26.5,30.33,SE,142,4.0,7.0,92,0.00,,,0.00,Wunderground v.1.15,2013-12-16 13:48:00,
2013-12-16 08:49:00,28.6,26.6,30.33,SSE,149,4.0,7.0,92,0.00,,,0.00,Wunderground v.1.15,2013-12-16 13:49:00,
2013-12-16 08:51:00,28.7,26.7,30.33,SE,144,4.0,5.0,92,0.00,,,0.00,Wunderground v.1.15,2013-12-16 13:51:00,
2013-12-16 08:52:00,28.8,26.8,30.33,SE,144,4.0,7.0,92,0.00,,,0.00,Wunderground v.1.15,2013-12-16 13:52:00,
2013-12-16 08:53:00,28.8,26.8,30.33,SE,144,4.0,7.0,92,0.00,,,0.00,Wunderground v.1.15,2013-12-16 13:53:00,
2013-12-16 08:57:00,29.1,27.1,30.33,SSE,156,3.0,7.0,92,0.00,,,0.00,Wunderground v.1.15,2013-12-16 13:57:00,
2013-12-16 08:58:00,29.2,27.2,30.33,SSE,156,3.0,7.0,92,0.00,,,0.00,Wunderground v.1.15,2013-12-16 13:58:00,
2013-12-16 08:59:00,29.3,27.3,30.33,SSE,156,3.0,7.0,92,0.00,,,0.00,Wunderground v.1.15,2013-12-16 13:59:00,
2013-12-16 09:02:00,29.5,27.2,30.33,SSE,156,2.0,7.0,91,0.00,,,0.00,Wunderground v.1.15,2013-12-16 14:02:00,
2013-12-16 09:06:00,29.9,27.6,30.33,SSE,155,2.0,7.0,91,0.00,,,0.00,Wunderground v.1.15,2013-12-16 14:06:00,
2013-12-16 09:07:00,30.0,27.7,30.33,SSE,153,2.0,7.0,91,0.00,,,0.00,Wunderground v.1.15,2013-12-16 14:07:00,
2013-12-16 09:08:00,30.1,27.8,30.33,SSE,153,2.0,7.0,91,0.00,,,0.00,Wunderground v.1.15,2013-12-16 14:08:00,
2013-12-16 09:10:00,30.3,27.7,30.33,SSE,148,2.0,7.0,90,0.00,,,0.00,Wunderground v.1.15,2013-12-16 14:10:00,
2013-12-16 09:12:00,30.5,27.9,30.33,SSE,151,3.0,7.0,90,0.00,,,0.00,Wunderground v.1.15,2013-12-16 14:12:00,
2013-12-16 09:15:00,30.8,28.2,30.33,SE,137,3.0,7.0,90,0.00,,,0.00,Wunderground v.1.15,2013-12-16 14:15:00,
2013-12-16 09:17:00,31.1,28.5,30.33,SE,134,3.0,7.0,90,0.00,,,0.00,Wunderground v.1.15,2013-12-16 14:17:00,
2013-12-16 09:18:00,31.3,28.7,30.33,SE,134,3.0,7.0,90,0.00,,,0.00,Wunderground v.1.15,2013-12-16 14:18:00,
2013-12-16 09:19:00,31.4,28.8,30.33,SE,145,3.0,7.0,90,0.00,,,0.00,Wunderground v.1.15,2013-12-16 14:19:00,
2013-12-16 09:20:00,31.6,29.0,30.33,SE,146,3.0,3.0,90,0.00,,,0.00,Wunderground v.1.15,2013-12-16 14:20:00,
2013-12-16 09:22:00,31.9,29.0,30.33,SE,141,3.0,7.0,89,0.00,,,0.00,Wunderground v.1.15,2013-12-16 14:22:00,
2013-12-16 09:24:00,32.1,28.9,30.33,SSE,153,3.0,7.0,88,0.00,,,0.00,Wunderground v.1.15,2013-12-16 14:24:00,
2013-12-16 09:25:00,32.2,29.0,30.33,SSE,153,3.0,7.0,88,0.00,,,0.00,Wunderground v.1.15,2013-12-16 14:25:00,
2013-12-16 09:27:00,32.5,29.3,30.33,SSE,154,3.0,7.0,88,0.00,,,0.00,Wunderground v.1.15,2013-12-16 14:27:00,
2013-12-16 09:28:00,32.6,29.4,30.33,SSE,154,3.0,7.0,88,0.00,,,0.00,Wunderground v.1.15,2013-12-16 14:28:00,
2013-12-16 09:29:00,32.7,29.3,30.33,SSE,154,3.0,7.0,87,0.00,,,0.00,Wunderground v.1.15,2013-12-16 14:29:00,
2013-12-16 09:30:00,32.9,29.7,30.33,SSE,155,3.0,3.0,88,0.00,,,0.00,Wunderground v.1.15,2013-12-16 14:30:00,
2013-12-16 09:33:00,33.3,29.6,30.33,SSE,163,3.0,7.0,86,0.00,,,0.00,Wunderground v.1.15,2013-12-16 14:33:00,
2013-12-16 09:34:00,33.5,29.8,30.33,SSE,163,3.0,7.0,86,0.00,,,0.00,Wunderground v.1.15,2013-12-16 14:34:00,
2013-12-16 09:35:00,33.6,29.6,30.33,SSE,163,2.0,7.0,85,0.00,,,0.00,Wunderground v.1.15,2013-12-16 14:35:00,
2013-12-16 09:36:00,33.7,29.4,30.33,SSE,166,2.0,7.0,84,0.00,,,0.00,Wunderground v.1.15,2013-12-16 14:36:00,
2013-12-16 09:38:00,33.8,29.5,30.33,SSE,166,2.0,7.0,84,0.00,,,0.00,Wunderground v.1.15,2013-12-16 14:38:00,
2013-12-16 09:40:00,34.1,29.8,30.33,South,182,2.0,7.0,84,0.00,,,0.00,Wunderground v.1.15,2013-12-16 14:40:00,
2013-12-16 09:42:00,34.3,29.7,30.33,South,190,2.0,7.0,83,0.00,,,0.00,Wunderground v.1.15,2013-12-16 14:42:00,
2013-12-16 09:43:00,34.3,29.7,30.34,South,190,2.0,7.0,83,0.00,,,0.00,Wunderground v.1.15,2013-12-16 14:43:00,
2013-12-16 09:44:00,34.3,29.4,30.34,South,190,2.0,7.0,82,0.00,,,0.00,Wunderground v.1.15,2013-12-16 14:44:00,
2013-12-16 09:45:00,34.4,29.8,30.33,South,190,3.0,7.0,83,0.00,,,0.00,Wunderground v.1.15,2013-12-16 14:45:00,
2013-12-16 09:48:00,34.6,30.0,30.33,South,181,2.0,7.0,83,0.00,,,0.00,Wunderground v.1.15,2013-12-16 14:48:00,
2013-12-16 09:50:00,34.8,30.2,30.34,South,182,3.0,3.0,83,0.00,,,0.00,Wunderground v.1.15,2013-12-16 14:50:00,
2013-12-16 09:52:00,35.0,30.4,30.34,South,176,3.0,7.0,83,0.00,,,0.00,Wunderground v.1.15,2013-12-16 14:52:00,
2013-12-16 09:56:00,35.3,29.7,30.34,South,180,3.0,7.0,80,0.00,,,0.00,Wunderground v.1.15,2013-12-16 14:56:00,
2013-12-16 09:57:00,35.3,29.7,30.34,South,180,3.0,7.0,80,0.00,,,0.00,Wunderground v.1.15,2013-12-16 14:57:00,
2013-12-16 09:58:00,35.4,29.8,30.34,South,180,3.0,7.0,80,0.00,,,0.00,Wunderground v.1.15,2013-12-16 14:58:00,
2013-12-16 10:00:00,35.6,29.7,30.34,SSW,192,3.0,7.0,79,0.00,,,0.00,Wunderground v.1.15,2013-12-16 15:00:00,
2013-12-16 10:02:00,35.6,29.4,30.34,SSW,192,3.0,7.0,78,0.00,,,0.00,Wunderground v.1.15,2013-12-16 15:02:00,
2013-12-16 10:03:00,35.6,29.4,30.34,SSW,192,3.0,7.0,78,0.00,,,0.00,Wunderground v.1.15,2013-12-16 15:03:00,
2013-12-16 10:04:00,35.7,29.8,30.34,SSW,192,3.0,7.0,79,0.00,,,0.00,Wunderground v.1.15,2013-12-16 15:04:00,
2013-12-16 10:06:00,35.9,30.3,30.34,SSW,192,3.0,7.0,80,0.00,,,0.00,Wunderground v.1.15,2013-12-16 15:06:00,
2013-12-16 10:07:00,36.1,30.2,30.34,SSW,192,3.0,7.0,79,0.00,,,0.00,Wunderground v.1.15,2013-12-16 15:07:00,
2013-12-16 10:08:00,36.2,30.3,30.34,SSW,192,2.0,7.0,79,0.00,,,0.00,Wunderground v.1.15,2013-12-16 15:08:00,
2013-12-16 10:10:00,36.4,29.9,30.34,SSW,192,3.0,3.0,77,0.00,,,0.00,Wunderground v.1.15,2013-12-16 15:10:00,
2013-12-16 10:12:00,36.5,30.0,30.34,SSW,192,2.0,7.0,77,0.00,,,0.00,Wunderground v.1.15,2013-12-16 15:12:00,
2013-12-16 10:13:00,36.6,30.4,30.34,SSW,192,2.0,7.0,78,0.00,,,0.00,Wunderground v.1.15,2013-12-16 15:13:00,
2013-12-16 10:14:00,36.6,30.4,30.34,SSW,192,2.0,7.0,78,0.00,,,0.00,Wunderground v.1.15,2013-12-16 15:14:00,
2013-12-16 10:16:00,36.8,30.3,30.34,SSW,192,2.0,7.0,77,0.00,,,0.00,Wunderground v.1.15,2013-12-16 15:16:00,
2013-12-16 10:17:00,36.9,30.7,30.34,SSW,192,2.0,7.0,78,0.00,,,0.00,Wunderground v.1.15,2013-12-16 15:17:00,
2013-12-16 10:18:00,37.0,30.5,30.34,SSW,207,2.0,7.0,77,0.00,,,0.00,Wunderground v.1.15,2013-12-16 15:18:00,
2013-12-16 10:21:00,37.2,30.7,30.33,South,184,3.0,7.0,77,0.00,,,0.00,Wunderground v.1.15,2013-12-16 15:21:00,
2013-12-16 10:23:00,37.4,30.5,30.33,South,184,3.0,7.0,76,0.00,,,0.00,Wunderground v.1.15,2013-12-16 15:23:00,
2013-12-16 10:24:00,37.5,30.6,30.33,SW,215,4.0,7.0,76,0.00,,,0.00,Wunderground v.1.15,2013-12-16 15:24:00,
2013-12-16 10:26:00,37.7,30.8,30.33,SSW,196,4.0,7.0,76,0.00,,,0.00,Wunderground v.1.15,2013-12-16 15:26:00,
2013-12-16 10:27:00,37.8,30.6,30.33,SSW,196,4.0,7.0,75,0.00,,,0.00,Wunderground v.1.15,2013-12-16 15:27:00,
2013-12-16 10:28:00,37.9,31.0,30.33,SSW,200,4.0,7.0,76,0.00,,,0.00,Wunderground v.1.15,2013-12-16 15:28:00,
2013-12-16 10:30:00,38.1,30.5,30.33,SSW,201,3.0,3.0,74,0.00,,,0.00,Wunderground v.1.15,2013-12-16 15:30:00,
2013-12-16 10:31:00,38.1,30.9,30.33,SSW,202,3.0,7.0,75,0.00,,,0.00,Wunderground v.1.15,2013-12-16 15:31:00,
2013-12-16 10:32:00,38.2,31.0,30.33,SSW,202,3.0,7.0,75,0.00,,,0.00,Wunderground v.1.15,2013-12-16 15:32:00,
2013-12-16 10:35:00,38.6,31.4,30.33,South,178,2.0,7.0,75,0.00,,,0.00,Wunderground v.1.15,2013-12-16 15:35:00,
2013-12-16 10:39:00,38.8,30.9,30.33,South,190,3.0,7.0,73,0.00,,,0.00,Wunderground v.1.15,2013-12-16 15:39:00,
2013-12-16 10:41:00,39.0,31.4,30.33,South,190,2.0,7.0,74,0.00,,,0.00,Wunderground v.1.15,2013-12-16 15:41:00,
2013-12-16 10:44:00,39.4,30.8,30.33,WSW,247,3.0,7.0,71,0.00,,,0.00,Wunderground v.1.15,2013-12-16 15:44:00,
2013-12-16 10:47:00,40.4,30.3,30.33,WNW,282,3.0,7.0,67,0.00,,,0.00,Wunderground v.1.15,2013-12-16 15:47:00,
2013-12-16 10:49:00,41.0,30.5,30.33,West,275,4.0,7.0,66,0.00,,,0.00,Wunderground v.1.15,2013-12-16 15:49:00,
2013-12-16 10:50:00,41.3,30.0,30.33,WNW,286,4.0,7.0,64,0.00,,,0.00,Wunderground v.1.15,2013-12-16 15:50:00,
2013-12-16 10:53:00,41.9,30.6,30.33,NW,309,6.0,8.0,64,0.00,,,0.00,Wunderground v.1.15,2013-12-16 15:53:00,
2013-12-16 10:54:00,42.1,30.8,30.33,NW,322,6.0,8.0,64,0.00,,,0.00,Wunderground v.1.15,2013-12-16 15:54:00,
2013-12-16 10:56:00,42.4,30.7,30.33,West,265,6.0,8.0,63,0.00,,,0.00,Wunderground v.1.15,2013-12-16 15:56:00,
2013-12-16 10:58:00,42.7,30.6,30.32,WNW,303,6.0,8.0,62,0.00,,,0.00,Wunderground v.1.15,2013-12-16 15:58:00,
2013-12-16 10:59:00,42.8,29.9,30.32,NW,315,7.0,9.0,60,0.00,,,0.00,Wunderground v.1.15,2013-12-16 15:59:00,
2013-12-16 11:01:00,43.0,30.1,30.32,NW,315,7.0,9.0,60,0.00,,,0.00,Wunderground v.1.15,2013-12-16 16:01:00,
2013-12-16 11:02:00,43.0,30.1,30.32,WSW,257,7.0,9.0,60,0.00,,,0.00,Wunderground v.1.15,2013-12-16 16:02:00,
2013-12-16 11:04:00,43.2,29.8,30.32,West,269,7.0,9.0,59,0.00,,,0.00,Wunderground v.1.15,2013-12-16 16:04:00,
2013-12-16 11:06:00,43.3,29.9,30.32,NW,305,8.0,9.0,59,0.00,,,0.00,Wunderground v.1.15,2013-12-16 16:06:00,
2013-12-16 11:08:00,43.5,30.1,30.32,WNW,302,8.0,9.0,59,0.00,,,0.00,Wunderground v.1.15,2013-12-16 16:08:00,
2013-12-16 11:09:00,43.6,30.2,30.32,WNW,302,8.0,9.0,59,0.00,,,0.00,Wunderground v.1.15,2013-12-16 16:09:00,
2013-12-16 11:12:00,43.8,30.8,30.32,WNW,287,7.0,7.0,60,0.00,,,0.00,Wunderground v.1.15,2013-12-16 16:12:00,
2013-12-16 11:13:00,43.9,30.1,30.32,WNW,284,7.0,7.0,58,0.00,,,0.00,Wunderground v.1.15,2013-12-16 16:13:00,
2013-12-16 11:16:00,44.0,29.7,30.32,NW,312,7.0,9.0,57,0.00,,,0.00,Wunderground v.1.15,2013-12-16 16:16:00,
2013-12-16 11:17:00,44.1,29.8,30.32,NW,311,7.0,9.0,57,0.00,,,0.00,Wunderground v.1.15,2013-12-16 16:17:00,
2013-12-16 11:19:00,44.2,29.5,30.32,NW,309,7.0,12.0,56,0.00,,,0.00,Wunderground v.1.15,2013-12-16 16:19:00,
2013-12-16 11:21:00,44.2,29.9,30.32,WNW,294,7.0,8.0,57,0.00,,,0.00,Wunderground v.1.15,2013-12-16 16:21:00,
2013-12-16 11:22:00,44.2,29.9,30.32,NW,315,7.0,8.0,57,0.00,,,0.00,Wunderground v.1.15,2013-12-16 16:22:00,
2013-12-16 11:24:00,44.3,30.0,30.32,West,274,7.0,10.0,57,0.00,,,0.00,Wunderground v.1.15,2013-12-16 16:24:00,
2013-12-16 11:25:00,44.3,30.0,30.32,WNW,286,7.0,10.0,57,0.00,,,0.00,Wunderground v.1.15,2013-12-16 16:25:00,
2013-12-16 11:27:00,44.5,30.2,30.31,WNW,293,7.0,11.0,57,0.00,,,0.00,Wunderground v.1.15,2013-12-16 16:27:00,
2013-12-16 11:29:00,44.6,30.3,30.31,NW,310,8.0,11.0,57,0.00,,,0.00,Wunderground v.1.15,2013-12-16 16:29:00,
2013-12-16 11:30:00,44.6,29.9,30.31,NW,317,8.0,8.0,56,0.00,,,0.00,Wunderground v.1.15,2013-12-16 16:30:00,
2013-12-16 11:33:00,44.6,29.4,30.31,West,279,8.0,10.0,55,0.00,,,0.00,Wunderground v.1.15,2013-12-16 16:33:00,
2013-12-16 11:34:00,44.6,29.9,30.31,NW,317,8.0,10.0,56,0.00,,,0.00,Wunderground v.1.15,2013-12-16 16:34:00,
2013-12-16 11:35:00,44.6,29.9,30.31,West,279,8.0,10.0,56,0.00,,,0.00,Wunderground v.1.15,2013-12-16 16:35:00,
2013-12-16 11:37:00,44.6,29.9,30.31,WNW,302,9.0,10.0,56,0.00,,,0.00,Wunderground v.1.15,2013-12-16 16:37:00,
2013-12-16 11:39:00,44.7,29.1,30.31,WNW,302,9.0,10.0,54,0.00,,,0.00,Wunderground v.1.15,2013-12-16 16:39:00,
2013-12-16 11:41:00,44.7,29.5,30.31,NW,311,8.0,10.0,55,0.00,,,0.00,Wunderground v.1.15,2013-12-16 16:41:00,
2013-12-16 11:42:00,44.8,29.6,30.31,NW,304,8.0,10.0,55,0.00,,,0.00,Wunderground v.1.15,2013-12-16 16:42:00,
2013-12-16 11:45:00,44.9,29.7,30.31,NW,311,8.0,10.0,55,0.00,,,0.00,Wunderground v.1.15,2013-12-16 16:45:00,
2013-12-16 11:46:00,45.0,30.2,30.30,NW,325,8.0,10.0,56,0.00,,,0.00,Wunderground v.1.15,2013-12-16 16:46:00,
2013-12-16 11:47:00,45.1,29.9,30.30,NW,311,8.0,10.0,55,0.00,,,0.00,Wunderground v.1.15,2013-12-16 16:47:00,
2013-12-16 11:49:00,45.1,29.9,30.30,WNW,296,7.0,10.0,55,0.00,,,0.00,Wunderground v.1.15,2013-12-16 16:49:00,
2013-12-16 11:50:00,45.2,30.0,30.30,NW,314,7.0,7.0,55,0.00,,,0.00,Wunderground v.1.15,2013-12-16 16:50:00,
2013-12-16 11:51:00,45.3,29.6,30.30,NNW,329,6.0,7.0,54,0.00,,,0.00,Wunderground v.1.15,2013-12-16 16:51:00,
2013-12-16 11:53:00,45.4,30.2,30.30,NW,312,6.0,7.0,55,0.00,,,0.00,Wunderground v.1.15,2013-12-16 16:53:00,
2013-12-16 11:55:00,45.5,29.8,30.30,NNW,340,6.0,7.0,54,0.00,,,0.00,Wunderground v.1.15,2013-12-16 16:55:00,
2013-12-16 11:57:00,45.7,30.0,30.30,West,268,5.0,7.0,54,0.00,,,0.00,Wunderground v.1.15,2013-12-16 16:57:00,
2013-12-16 11:58:00,45.7,30.0,30.30,WNW,284,5.0,7.0,54,0.00,,,0.00,Wunderground v.1.15,2013-12-16 16:58:00,
2013-12-16 11:59:00,45.8,29.6,30.30,WNW,294,5.0,7.0,53,0.00,,,0.00,Wunderground v.1.15,2013-12-16 16:59:00,
2013-12-16 12:01:00,45.8,30.1,30.29,NW,310,5.0,7.0,54,0.00,,,0.00,Wunderground v.1.15,2013-12-16 17:01:00,
2013-12-16 12:02:00,45.9,30.2,30.29,WNW,301,5.0,7.0,54,0.00,,,0.00,Wunderground v.1.15,2013-12-16 17:02:00,
2013-12-16 12:04:00,46.0,29.8,30.29,NW,304,5.0,7.0,53,0.00,,,0.00,Wunderground v.1.15,2013-12-16 17:04:00,
2013-12-16 12:05:00,46.0,29.8,30.29,WNW,287,5.0,7.0,53,0.00,,,0.00,Wunderground v.1.15,2013-12-16 17:05:00,
2013-12-16 12:09:00,46.3,29.6,30.29,WNW,302,5.0,7.0,52,0.00,,,0.00,Wunderground v.1.15,2013-12-16 17:09:00,
2013-12-16 12:11:00,46.4,30.6,30.29,NW,315,5.0,7.0,54,0.00,,,0.00,Wunderground v.1.15,2013-12-16 17:11:00,
2013-12-16 12:13:00,46.6,30.4,30.29,NW,325,5.0,7.0,53,0.00,,,0.00,Wunderground v.1.15,2013-12-16 17:13:00,
2013-12-16 12:14:00,46.7,30.5,30.29,WNW,296,5.0,7.0,53,0.00,,,0.00,Wunderground v.1.15,2013-12-16 17:14:00,
2013-12-16 12:15:00,46.7,30.0,30.29,NW,309,5.0,7.0,52,0.00,,,0.00,Wunderground v.1.15,2013-12-16 17:15:00,
2013-12-16 12:18:00,46.9,30.2,30.29,NW,304,5.0,7.0,52,0.00,,,0.00,Wunderground v.1.15,2013-12-16 17:18:00,
2013-12-16 12:19:00,46.9,30.2,30.29,West,271,5.0,7.0,52,0.00,,,0.00,Wunderground v.1.15,2013-12-16 17:19:00,
2013-12-16 12:20:00,46.9,29.7,30.29,NW,310,5.0,7.0,51,0.00,,,0.00,Wunderground v.1.15,2013-12-16 17:20:00,
2013-12-16 12:24:00,47.1,29.9,30.29,West,272,6.0,10.0,51,0.00,,,0.00,Wunderground v.1.15,2013-12-16 17:24:00,
2013-12-16 12:25:00,47.2,30.5,30.29,WNW,286,6.0,10.0,52,0.00,,,0.00,Wunderground v.1.15,2013-12-16 17:25:00,
2013-12-16 12:26:00,47.2,30.0,30.29,West,264,6.0,10.0,51,0.00,,,0.00,Wunderground v.1.15,2013-12-16 17:26:00,
2013-12-16 12:29:00,47.2,30.5,30.29,West,259,6.0,10.0,52,0.00,,,0.00,Wunderground v.1.15,2013-12-16 17:29:00,
2013-12-16 12:30:00,47.3,31.5,30.28,NW,304,5.0,5.0,54,0.00,,,0.00,Wunderground v.1.15,2013-12-16 17:30:00,
2013-12-16 12:32:00,47.5,30.7,30.28,West,275,5.0,7.0,52,0.00,,,0.00,Wunderground v.1.15,2013-12-16 17:32:00,
2013-12-16 12:37:00,47.8,31.0,30.28,West,280,5.0,7.0,52,0.00,,,0.00,Wunderground v.1.15,2013-12-16 17:37:00,
2013-12-16 12:38:00,47.9,30.6,30.28,NW,314,5.0,7.0,51,0.00,,,0.00,Wunderground v.1.15,2013-12-16 17:38:00,
2013-12-16 12:41:00,47.9,30.1,30.28,West,273,5.0,7.0,50,0.00,,,0.00,Wunderground v.1.15,2013-12-16 17:41:00,
2013-12-16 12:42:00,48.0,30.7,30.28,WNW,284,5.0,7.0,51,0.00,,,0.00,Wunderground v.1.15,2013-12-16 17:42:00,
2013-12-16 12:43:00,48.0,30.2,30.28,WSW,254,5.0,7.0,50,0.00,,,0.00,Wunderground v.1.15,2013-12-16 17:43:00,
2013-12-16 12:45:00,48.0,30.2,30.28,WNW,298,5.0,7.0,50,0.00,,,0.00,Wunderground v.1.15,2013-12-16 17:45:00,
2013-12-16 12:46:00,48.0,30.2,30.28,WNW,298,5.0,7.0,50,0.00,,,0.00,Wunderground v.1.15,2013-12-16 17:46:00,
2013-12-16 12:47:00,48.0,30.7,30.27,WNW,298,4.0,7.0,51,0.00,,,0.00,Wunderground v.1.15,2013-12-16 17:47:00,
2013-12-16 12:50:00,48.2,30.9,30.27,NW,309,4.0,7.0,51,0.00,,,0.00,Wunderground v.1.15,2013-12-16 17:50:00,
2013-12-16 12:51:00,48.2,30.9,30.27,NW,311,4.0,7.0,51,0.00,,,0.00,Wunderground v.1.15,2013-12-16 17:51:00,
2013-12-16 12:52:00,48.3,30.5,30.27,NW,309,4.0,7.0,50,0.00,,,0.00,Wunderground v.1.15,2013-12-16 17:52:00,
2013-12-16 12:54:00,48.4,31.1,30.27,WSW,243,4.0,7.0,51,0.00,,,0.00,Wunderground v.1.15,2013-12-16 17:54:00,
2013-12-16 12:57:00,48.5,30.7,30.27,WSW,248,4.0,8.0,50,0.00,,,0.00,Wunderground v.1.15,2013-12-16 17:57:00,
2013-12-16 12:59:00,48.4,30.6,30.27,WSW,250,5.0,8.0,50,0.00,,,0.00,Wunderground v.1.15,2013-12-16 17:59:00,
2013-12-16 13:01:00,48.5,31.2,30.27,SW,225,5.0,7.0,51,0.00,,,0.00,Wunderground v.1.15,2013-12-16 18:01:00,
2013-12-16 13:02:00,48.6,31.3,30.27,WSW,252,5.0,7.0,51,0.00,,,0.00,Wunderground v.1.15,2013-12-16 18:02:00,
2013-12-16 13:04:00,48.8,31.5,30.27,NW,318,5.0,7.0,51,0.00,,,0.00,Wunderground v.1.15,2013-12-16 18:04:00,
2013-12-16 13:06:00,49.0,31.6,30.27,West,259,5.0,7.0,51,0.00,,,0.00,Wunderground v.1.15,2013-12-16 18:06:00,
2013-12-16 13:07:00,49.1,32.2,30.27,West,278,5.0,7.0,52,0.00,,,0.00,Wunderground v.1.15,2013-12-16 18:07:00,
2013-12-16 13:10:00,49.1,30.7,30.27,WSW,248,5.0,7.0,49,0.00,,,0.00,Wunderground v.1.15,2013-12-16 18:10:00,
2013-12-16 13:11:00,49.1,30.7,30.27,West,269,5.0,8.0,49,0.00,,,0.00,Wunderground v.1.15,2013-12-16 18:11:00,
2013-12-16 13:14:00,49.1,30.7,30.27,West,263,6.0,8.0,49,0.00,,,0.00,Wunderground v.1.15,2013-12-16 18:14:00,
2013-12-16 13:15:00,49.2,31.3,30.27,SW,227,6.0,8.0,50,0.00,,,0.00,Wunderground v.1.15,2013-12-16 18:15:00,
2013-12-16 13:19:00,49.4,31.5,30.27,WSW,248,5.0,8.0,50,0.00,,,0.00,Wunderground v.1.15,2013-12-16 18:19:00,
2013-12-16 13:20:00,49.5,31.6,30.27,WSW,250,5.0,7.0,50,0.00,,,0.00,Wunderground v.1.15,2013-12-16 18:20:00,
2013-12-16 13:21:00,49.5,31.6,30.27,SW,229,5.0,7.0,50,0.00,,,0.00,Wunderground v.1.15,2013-12-16 18:21:00,
2013-12-16 13:22:00,49.4,31.0,30.27,WSW,237,5.0,7.0,49,0.00,,,0.00,Wunderground v.1.15,2013-12-16 18:22:00,
2013-12-16 13:25:00,49.3,30.4,30.26,SW,227,5.0,7.0,48,0.00,,,0.00,Wunderground v.1.15,2013-12-16 18:25:00,
2013-12-16 13:27:00,49.3,30.9,30.26,NW,315,5.0,7.0,49,0.00,,,0.00,Wunderground v.1.15,2013-12-16 18:27:00,
2013-12-16 13:30:00,49.5,31.1,30.26,WNW,293,5.0,7.0,49,0.00,,,0.00,Wunderground v.1.15,2013-12-16 18:30:00,
2013-12-16 13:31:00,49.6,31.2,30.26,WNW,284,5.0,7.0,49,0.00,,,0.00,Wunderground v.1.15,2013-12-16 18:31:00,
2013-12-16 13:34:00,49.7,30.8,30.26,WSW,257,4.0,7.0,48,0.00,,,0.00,Wunderground v.1.15,2013-12-16 18:34:00,
2013-12-16 13:35:00,49.7,30.8,30.26,West,263,4.0,7.0,48,0.00,,,0.00,Wunderground v.1.15,2013-12-16 18:35:00,
2013-12-16 13:37:00,49.9,31.0,30.26,West,281,4.0,8.0,48,0.00,,,0.00,Wunderground v.1.15,2013-12-16 18:37:00,
2013-12-16 13:40:00,50.0,30.0,30.26,WNW,290,5.0,7.0,46,0.00,,,0.00,Wunderground v.1.15,2013-12-16 18:40:00,
2013-12-16 13:41:00,50.1,30.6,30.26,WNW,284,5.0,7.0,47,0.00,,,0.00,Wunderground v.1.15,2013-12-16 18:41:00,
2013-12-16 13:43:00,50.4,30.4,30.26,West,270,5.0,7.0,46,0.00,,,0.00,Wunderground v.1.15,2013-12-16 18:43:00,
2013-12-16 13:44:00,50.4,29.8,30.25,West,269,6.0,8.0,45,0.00,,,0.00,Wunderground v.1.15,2013-12-16 18:44:00,
2013-12-16 13:46:00,50.4,30.4,30.25,West,276,6.0,8.0,46,0.00,,,0.00,Wunderground v.1.15,2013-12-16 18:46:00,
2013-12-16 13:47:00,50.5,30.5,30.25,WSW,244,6.0,8.0,46,0.00,,,0.00,Wunderground v.1.15,2013-12-16 18:47:00,
2013-12-16 13:48:00,50.6,30.0,30.25,WNW,292,6.0,8.0,45,0.00,,,0.00,Wunderground v.1.15,2013-12-16 18:48:00,
2013-12-16 13:52:00,51.0,30.4,30.25,West,268,6.0,9.0,45,0.00,,,0.00,Wunderground v.1.15,2013-12-16 18:52:00,
2013-12-16 13:53:00,51.0,29.8,30.25,West,267,6.0,9.0,44,0.00,,,0.00,Wunderground v.1.15,2013-12-16 18:53:00,
2013-12-16 13:55:00,51.0,29.3,30.25,West,267,6.0,9.0,43,0.00,,,0.00,Wunderground v.1.15,2013-12-16 18:55:00,
2013-12-16 13:56:00,51.0,29.8,30.25,WSW,238,6.0,9.0,44,0.00,,,0.00,Wunderground v.1.15,2013-12-16 18:56:00,
2013-12-16 13:57:00,50.9,29.7,30.25,West,266,6.0,9.0,44,0.00,,,0.00,Wunderground v.1.15,2013-12-16 18:57:00,
2013-12-16 13:58:00,50.8,29.1,30.25,SW,220,7.0,9.0,43,0.00,,,0.00,Wunderground v.1.15,2013-12-16 18:58:00,
2013-12-16 13:59:00,50.8,29.1,30.25,West,264,7.0,9.0,43,0.00,,,0.00,Wunderground v.1.15,2013-12-16 18:59:00,
2013-12-16 14:02:00,50.8,29.6,30.25,WNW,289,7.0,9.0,44,0.00,,,0.00,Wunderground v.1.15,2013-12-16 19:02:00,
2013-12-16 14:03:00,50.8,29.6,30.25,West,268,7.0,9.0,44,0.00,,,0.00,Wunderground v.1.15,2013-12-16 19:03:00,
2013-12-16 14:06:00,51.0,30.4,30.25,West,275,6.0,9.0,45,0.00,,,0.00,Wunderground v.1.15,2013-12-16 19:06:00,
2013-12-16 14:07:00,51.2,31.1,30.25,WSW,240,5.0,9.0,46,0.00,,,0.00,Wunderground v.1.15,2013-12-16 19:07:00,
2013-12-16 14:09:00,51.4,30.7,30.25,West,271,5.0,9.0,45,0.00,,,0.00,Wunderground v.1.15,2013-12-16 19:09:00,
2013-12-16 14:10:00,51.5,29.7,30.25,NW,304,4.0,4.0,43,0.00,,,0.00,Wunderground v.1.15,2013-12-16 19:10:00,
2013-12-16 14:11:00,51.5,30.3,30.25,NW,304,4.0,7.0,44,0.00,,,0.00,Wunderground v.1.15,2013-12-16 19:11:00,
2013-12-16 14:12:00,51.6,30.9,30.25,West,266,4.0,7.0,45,0.00,,,0.00,Wunderground v.1.15,2013-12-16 19:12:00,
2013-12-16 14:15:00,51.7,29.9,30.25,WSW,257,4.0,8.0,43,0.00,,,0.00,Wunderground v.1.15,2013-12-16 19:15:00,
2013-12-16 14:18:00,51.7,29.9,30.25,West,281,5.0,8.0,43,0.00,,,0.00,Wunderground v.1.15,2013-12-16 19:18:00,
2013-12-16 14:19:00,51.7,30.5,30.25,WNW,292,4.0,8.0,44,0.00,,,0.00,Wunderground v.1.15,2013-12-16 19:19:00,
2013-12-16 14:20:00,51.8,30.6,30.25,WSW,240,4.0,7.0,44,0.00,,,0.00,Wunderground v.1.15,2013-12-16 19:20:00,
2013-12-16 14:21:00,52.0,31.3,30.25,WSW,241,4.0,7.0,45,0.00,,,0.00,Wunderground v.1.15,2013-12-16 19:21:00,
2013-12-16 14:23:00,52.3,29.9,30.25,WSW,240,5.0,7.0,42,0.00,,,0.00,Wunderground v.1.15,2013-12-16 19:23:00,
2013-12-16 14:25:00,52.3,29.9,30.25,SSW,192,4.0,7.0,42,0.00,,,0.00,Wunderground v.1.15,2013-12-16 19:25:00,
2013-12-16 14:26:00,52.3,29.9,30.25,South,184,4.0,7.0,42,0.00,,,0.00,Wunderground v.1.15,2013-12-16 19:26:00,
2013-12-16 14:28:00,52.4,30.0,30.25,SW,219,4.0,8.0,42,0.00,,,0.00,Wunderground v.1.15,2013-12-16 19:28:00,
2013-12-16 14:29:00,52.3,29.9,30.25,WSW,246,5.0,8.0,42,0.00,,,0.00,Wunderground v.1.15,2013-12-16 19:29:00,
2013-12-16 14:30:00,52.2,29.8,30.25,SW,224,6.0,6.0,42,0.00,,,0.00,Wunderground v.1.15,2013-12-16 19:30:00,
2013-12-16 14:31:00,52.2,29.8,30.25,South,184,6.0,7.0,42,0.00,,,0.00,Wunderground v.1.15,2013-12-16 19:31:00,
2013-12-16 14:32:00,52.2,29.8,30.25,South,182,6.0,7.0,42,0.00,,,0.00,Wunderground v.1.15,2013-12-16 19:32:00,
2013-12-16 14:35:00,52.4,30.5,30.26,South,180,6.0,7.0,43,0.00,,,0.00,Wunderground v.1.15,2013-12-16 19:35:00,
2013-12-16 14:37:00,52.4,30.0,30.25,SSW,205,6.0,8.0,42,0.00,,,0.00,Wunderground v.1.15,2013-12-16 19:37:00,
2013-12-16 14:38:00,52.3,29.9,30.25,SSW,197,6.0,8.0,42,0.00,,,0.00,Wunderground v.1.15,2013-12-16 19:38:00,
2013-12-16 14:41:00,52.3,29.9,30.25,SSW,198,5.0,7.0,42,0.00,,,0.00,Wunderground v.1.15,2013-12-16 19:41:00,
2013-12-16 14:42:00,52.3,30.4,30.25,South,178,5.0,7.0,43,0.00,,,0.00,Wunderground v.1.15,2013-12-16 19:42:00,
2013-12-16 14:43:00,52.3,31.0,30.25,South,184,5.0,7.0,44,0.00,,,0.00,Wunderground v.1.15,2013-12-16 19:43:00,
2013-12-16 14:44:00,52.3,29.9,30.25,South,190,6.0,7.0,42,0.00,,,0.00,Wunderground v.1.15,2013-12-16 19:44:00,
2013-12-16 14:46:00,52.3,30.4,30.25,SSW,199,6.0,8.0,43,0.00,,,0.00,Wunderground v.1.15,2013-12-16 19:46:00,
2013-12-16 14:48:00,52.3,30.4,30.25,SSW,196,6.0,8.0,43,0.00,,,0.00,Wunderground v.1.15,2013-12-16 19:48:00,
2013-12-16 14:50:00,52.4,30.5,30.25,WSW,253,6.0,6.0,43,0.00,,,0.00,Wunderground v.1.15,2013-12-16 19:50:00,
2013-12-16 14:51:00,52.5,30.6,30.25,WSW,250,6.0,7.0,43,0.00,,,0.00,Wunderground v.1.15,2013-12-16 19:51:00,
2013-12-16 14:52:00,52.6,30.1,30.25,West,280,6.0,7.0,42,0.00,,,0.00,Wunderground v.1.15,2013-12-16 19:52:00,
2013-12-16 14:55:00,52.8,30.9,30.25,South,184,5.0,7.0,43,0.00,,,0.00,Wunderground v.1.15,2013-12-16 19:55:00,
2013-12-16 14:58:00,53.0,30.5,30.25,WSW,242,5.0,9.0,42,0.00,,,0.00,Wunderground v.1.15,2013-12-16 19:58:00,
2013-12-16 15:00:00,52.8,30.3,30.25,West,277,5.0,5.0,42,0.00,,,0.00,Wunderground v.1.15,2013-12-16 20:00:00,
2013-12-16 15:02:00,52.8,30.9,30.25,West,281,5.0,7.0,43,0.00,,,0.00,Wunderground v.1.15,2013-12-16 20:02:00,
2013-12-16 15:03:00,52.9,31.0,30.25,WSW,243,5.0,7.0,43,0.00,,,0.00,Wunderground v.1.15,2013-12-16 20:03:00,
2013-12-16 15:05:00,53.0,30.5,30.25,South,188,5.0,9.0,42,0.00,,,0.00,Wunderground v.1.15,2013-12-16 20:05:00,
2013-12-16 15:06:00,53.0,30.5,30.25,SW,224,6.0,9.0,42,0.00,,,0.00,Wunderground v.1.15,2013-12-16 20:06:00,
2013-12-16 15:07:00,53.0,31.1,30.25,South,189,6.0,9.0,43,0.00,,,0.00,Wunderground v.1.15,2013-12-16 20:07:00,
2013-12-16 15:08:00,53.0,31.1,30.25,WSW,240,6.0,9.0,43,0.00,,,0.00,Wunderground v.1.15,2013-12-16 20:08:00,
2013-12-16 15:09:00,53.1,30.6,30.25,SW,229,6.0,9.0,42,0.00,,,0.00,Wunderground v.1.15,2013-12-16 20:09:00,
2013-12-16 15:11:00,53.2,30.7,30.25,South,190,6.0,7.0,42,0.00,,,0.00,Wunderground v.1.15,2013-12-16 20:11:00,
2013-12-16 15:12:00,53.2,30.7,30.24,SW,217,6.0,8.0,42,0.00,,,0.00,Wunderground v.1.15,2013-12-16 20:12:00,
2013-12-16 15:14:00,53.3,31.9,30.24,SSW,208,7.0,8.0,44,0.00,,,0.00,Wunderground v.1.15,2013-12-16 20:14:00,
2013-12-16 15:16:00,53.5,31.0,30.24,WSW,240,6.0,8.0,42,0.00,,,0.00,Wunderground v.1.15,2013-12-16 20:16:00,
2013-12-16 15:19:00,53.7,31.1,30.24,SW,232,6.0,8.0,42,0.00,,,0.00,Wunderground v.1.15,2013-12-16 20:19:00,
2013-12-16 15:21:00,53.9,30.1,30.24,WSW,252,5.0,10.0,40,0.00,,,0.00,Wunderground v.1.15,2013-12-16 20:21:00,
2013-12-16 15:22:00,53.9,30.7,30.24,West,265,5.0,10.0,41,0.00,,,0.00,Wunderground v.1.15,2013-12-16 20:22:00,
2013-12-16 15:23:00,53.9,30.7,30.24,SW,232,5.0,10.0,41,0.00,,,0.00,Wunderground v.1.15,2013-12-16 20:23:00,
2013-12-16 15:26:00,54.1,30.9,30.24,WSW,246,6.0,10.0,41,0.00,,,0.00,Wunderground v.1.15,2013-12-16 20:26:00,
2013-12-16 15:27:00,54.1,30.9,30.24,WSW,243,6.0,10.0,41,0.00,,,0.00,Wunderground v.1.15,2013-12-16 20:27:00,
2013-12-16 15:29:00,54.2,31.0,30.25,West,265,6.0,10.0,41,0.00,,,0.00,Wunderground v.1.15,2013-12-16 20:29:00,
2013-12-16 15:30:00,54.2,31.0,30.24,WSW,244,7.0,7.0,41,0.00,,,0.00,Wunderground v.1.15,2013-12-16 20:30:00,
2013-12-16 15:31:00,54.3,31.7,30.24,WNW,282,7.0,7.0,42,0.00,,,0.00,Wunderground v.1.15,2013-12-16 20:31:00,
2013-12-16 15:33:00,54.4,30.6,30.24,West,277,6.0,7.0,40,0.00,,,0.00,Wunderground v.1.15,2013-12-16 20:33:00,
2013-12-16 15:34:00,54.4,30.6,30.24,WNW,283,6.0,7.0,40,0.00,,,0.00,Wunderground v.1.15,2013-12-16 20:34:00,
2013-12-16 15:36:00,54.4,30.6,30.24,West,270,5.0,8.0,40,0.00,,,0.00,Wunderground v.1.15,2013-12-16 20:36:00,
2013-12-16 15:37:00,54.5,30.0,30.24,West,279,5.0,8.0,39,0.00,,,0.00,Wunderground v.1.15,2013-12-16 20:37:00,
2013-12-16 15:38:00,54.4,30.6,30.24,West,261,5.0,8.0,40,0.00,,,0.00,Wunderground v.1.15,2013-12-16 20:38:00,
2013-12-16 15:39:00,54.4,29.9,30.24,West,273,5.0,8.0,39,0.00,,,0.00,Wunderground v.1.15,2013-12-16 20:39:00,
2013-12-16 15:41:00,54.4,31.2,30.25,WSW,254,6.0,8.0,41,0.00,,,0.00,Wunderground v.1.15,2013-12-16 20:41:00,
2013-12-16 15:42:00,54.4,31.2,30.25,SW,228,6.0,8.0,41,0.00,,,0.00,Wunderground v.1.15,2013-12-16 20:42:00,
2013-12-16 15:44:00,54.2,31.6,30.25,WSW,252,7.0,8.0,42,0.00,,,0.00,Wunderground v.1.15,2013-12-16 20:44:00,
2013-12-16 15:46:00,54.2,29.1,30.25,WSW,254,7.0,9.0,38,0.00,,,0.00,Wunderground v.1.15,2013-12-16 20:46:00,
2013-12-16 15:48:00,54.2,27.1,30.25,WNW,292,8.0,9.0,35,0.00,,,0.00,Wunderground v.1.15,2013-12-16 20:48:00,
2013-12-16 15:51:00,54.2,26.4,30.25,WNW,298,8.0,8.0,34,0.00,,,0.00,Wunderground v.1.15,2013-12-16 20:51:00,
2013-12-16 15:53:00,54.2,26.4,30.25,West,263,8.0,8.0,34,0.00,,,0.00,Wunderground v.1.15,2013-12-16 20:53:00,
2013-12-16 15:55:00,54.2,27.8,30.25,West,279,8.0,11.0,36,0.00,,,0.00,Wunderground v.1.15,2013-12-16 20:55:00,
2013-12-16 15:59:00,54.1,26.3,30.25,West,271,8.0,11.0,34,0.00,,,0.00,Wunderground v.1.15,2013-12-16 20:59:00,
2013-12-16 16:00:00,54.1,25.6,30.25,WNW,298,9.0,12.0,33,0.00,,,0.00,Wunderground v.1.15,2013-12-16 21:00:00,
2013-12-16 16:02:00,54.0,26.2,30.25,NW,318,9.0,15.0,34,0.00,,,0.00,Wunderground v.1.15,2013-12-16 21:02:00,
2013-12-16 16:04:00,53.9,26.1,30.26,West,274,9.0,15.0,34,0.00,,,0.00,Wunderground v.1.15,2013-12-16 21:04:00,
2013-12-16 16:05:00,53.9,25.4,30.26,NW,323,9.0,15.0,33,0.00,,,0.00,Wunderground v.1.15,2013-12-16 21:05:00,
2013-12-16 16:06:00,53.9,25.4,30.25,WNW,294,9.0,15.0,33,0.00,,,0.00,Wunderground v.1.15,2013-12-16 21:06:00,
2013-12-16 16:09:00,53.8,24.6,30.26,WNW,290,10.0,15.0,32,0.00,,,0.00,Wunderground v.1.15,2013-12-16 21:09:00,
2013-12-16 16:11:00,53.8,25.3,30.26,WNW,302,9.0,9.0,33,0.00,,,0.00,Wunderground v.1.15,2013-12-16 21:11:00,
2013-12-16 16:12:00,53.7,24.5,30.26,WNW,285,9.0,16.0,32,0.00,,,0.00,Wunderground v.1.15,2013-12-16 21:12:00,
2013-12-16 16:13:00,53.7,23.7,30.26,NW,313,9.0,16.0,31,0.00,,,0.00,Wunderground v.1.15,2013-12-16 21:13:00,
2013-12-16 16:14:00,53.6,23.7,30.26,WSW,248,9.0,16.0,31,0.00,,,0.00,Wunderground v.1.15,2013-12-16 21:14:00,
2013-12-16 16:15:00,53.6,23.7,30.26,WNW,283,10.0,16.0,31,0.00,,,0.00,Wunderground v.1.15,2013-12-16 21:15:00,
2013-12-16 16:17:00,53.5,23.6,30.26,NW,310,10.0,16.0,31,0.00,,,0.00,Wunderground v.1.15,2013-12-16 21:17:00,
2013-12-16 16:19:00,53.5,24.3,30.25,NW,307,10.0,16.0,32,0.00,,,0.00,Wunderground v.1.15,2013-12-16 21:19:00,
2013-12-16 16:21:00,53.5,24.3,30.26,WNW,288,10.0,11.0,32,0.00,,,0.00,Wunderground v.1.15,2013-12-16 21:21:00,
2013-12-16 16:22:00,53.5,24.3,30.25,West,281,10.0,11.0,32,0.00,,,0.00,Wunderground v.1.15,2013-12-16 21:22:00,
2013-12-16 16:23:00,53.4,25.0,30.25,NW,319,10.0,11.0,33,0.00,,,0.00,Wunderground v.1.15,2013-12-16 21:23:00,
2013-12-16 16:27:00,53.4,24.2,30.25,WNW,300,9.0,11.0,32,0.00,,,0.00,Wunderground v.1.15,2013-12-16 21:27:00,
2013-12-16 16:28:00,53.4,24.2,30.25,WNW,294,8.0,11.0,32,0.00,,,0.00,Wunderground v.1.15,2013-12-16 21:28:00,
2013-12-16 16:32:00,53.3,24.2,30.25,WNW,302,8.0,10.0,32,0.00,,,0.00,Wunderground v.1.15,2013-12-16 21:32:00,
2013-12-16 16:33:00,53.3,24.2,30.25,WNW,286,8.0,10.0,32,0.00,,,0.00,Wunderground v.1.15,2013-12-16 21:33:00,
2013-12-16 16:34:00,53.3,24.9,30.25,West,275,8.0,10.0,33,0.00,,,0.00,Wunderground v.1.15,2013-12-16 21:34:00,
2013-12-16 16:35:00,53.3,24.9,30.26,NW,314,8.0,10.0,33,0.00,,,0.00,Wunderground v.1.15,2013-12-16 21:35:00,
2013-12-16 16:37:00,53.2,24.1,30.25,West,280,7.0,10.0,32,0.00,,,0.00,Wunderground v.1.15,2013-12-16 21:37:00,
2013-12-16 16:40:00,53.2,24.8,30.25,West,273,6.0,6.0,33,0.00,,,0.00,Wunderground v.1.15,2013-12-16 21:40:00,
2013-12-16 16:43:00,53.1,24.7,30.26,West,271,5.0,8.0,33,0.00,,,0.00,Wunderground v.1.15,2013-12-16 21:43:00,
2013-12-16 16:45:00,53.1,24.0,30.25,West,274,5.0,9.0,32,0.00,,,0.00,Wunderground v.1.15,2013-12-16 21:45:00,
2013-12-16 16:46:00,53.0,23.9,30.25,WNW,290,5.0,9.0,32,0.00,,,0.00,Wunderground v.1.15,2013-12-16 21:46:00,
2013-12-16 16:47:00,53.0,24.6,30.25,WNW,292,5.0,9.0,33,0.00,,,0.00,Wunderground v.1.15,2013-12-16 21:47:00,
2013-12-16 16:48:00,53.0,23.9,30.25,West,271,5.0,9.0,32,0.00,,,0.00,Wunderground v.1.15,2013-12-16 21:48:00,
2013-12-16 16:51:00,52.8,23.7,30.26,West,277,6.0,8.0,32,0.00,,,0.00,Wunderground v.1.15,2013-12-16 21:51:00,
2013-12-16 16:54:00,52.6,23.5,30.26,West,273,7.0,8.0,32,0.00,,,0.00,Wunderground v.1.15,2013-12-16 21:54:00,
2013-12-16 16:55:00,52.6,24.3,30.26,West,274,7.0,8.0,33,0.00,,,0.00,Wunderground v.1.15,2013-12-16 21:55:00,
2013-12-16 16:56:00,52.5,24.2,30.26,West,276,6.0,8.0,33,0.00,,,0.00,Wunderground v.1.15,2013-12-16 21:56:00,
2013-12-16 16:58:00,52.4,24.8,30.26,WNW,292,6.0,8.0,34,0.00,,,0.00,Wunderground v.1.15,2013-12-16 21:58:00,
2013-12-16 17:00:00,52.3,24.0,30.26,WNW,282,6.0,6.0,33,0.00,,,0.00,Wunderground v.1.15,2013-12-16 22:00:00,
2013-12-16 17:01:00,52.3,24.7,30.26,West,271,6.0,7.0,34,0.00,,,0.00,Wunderground v.1.15,2013-12-16 22:01:00,
2013-12-16 17:03:00,52.2,23.9,30.26,West,279,5.0,7.0,33,0.00,,,0.00,Wunderground v.1.15,2013-12-16 22:03:00,
2013-12-16 17:04:00,52.2,24.6,30.26,WNW,286,5.0,7.0,34,0.00,,,0.00,Wunderground v.1.15,2013-12-16 22:04:00,
2013-12-16 17:05:00,52.1,23.8,30.26,West,276,5.0,7.0,33,0.00,,,0.00,Wunderground v.1.15,2013-12-16 22:05:00,
2013-12-16 17:09:00,51.9,24.4,30.26,West,278,4.0,7.0,34,0.00,,,0.00,Wunderground v.1.15,2013-12-16 22:09:00,
2013-12-16 17:10:00,51.8,24.3,30.26,West,273,4.0,7.0,34,0.00,,,0.00,Wunderground v.1.15,2013-12-16 22:10:00,
2013-12-16 17:14:00,51.5,24.0,30.26,West,272,4.0,7.0,34,0.00,,,0.00,Wunderground v.1.15,2013-12-16 22:14:00,
2013-12-16 17:15:00,51.5,24.0,30.26,West,272,4.0,7.0,34,0.00,,,0.00,Wunderground v.1.15,2013-12-16 22:15:00,
2013-12-16 17:17:00,51.4,23.9,30.26,West,273,4.0,7.0,34,0.00,,,0.00,Wunderground v.1.15,2013-12-16 22:17:00,
2013-12-16 17:18:00,51.3,23.8,30.26,West,273,4.0,7.0,34,0.00,,,0.00,Wunderground v.1.15,2013-12-16 22:18:00,
2013-12-16 17:20:00,51.2,24.5,30.26,West,273,3.0,3.0,35,0.00,,,0.00,Wunderground v.1.15,2013-12-16 22:20:00,
2013-12-16 17:22:00,51.0,25.0,30.26,West,273,3.0,7.0,36,0.00,,,0.00,Wunderground v.1.15,2013-12-16 22:22:00,
2013-12-16 17:25:00,50.5,25.2,30.26,SW,225,2.0,7.0,37,0.00,,,0.00,Wunderground v.1.15,2013-12-16 22:25:00,
2013-12-16 17:26:00,50.3,25.0,30.26,SW,220,2.0,7.0,37,0.00,,,0.00,Wunderground v.1.15,2013-12-16 22:26:00,
2013-12-16 17:27:00,50.1,24.8,30.26,SW,220,1.0,7.0,37,0.00,,,0.00,Wunderground v.1.15,2013-12-16 22:27:00,
2013-12-16 17:28:00,50.0,25.4,30.26,SW,220,1.0,7.0,38,0.00,,,0.00,Wunderground v.1.15,2013-12-16 22:28:00,
2013-12-16 17:29:00,49.8,25.2,30.26,SW,220,1.0,7.0,38,0.00,,,0.00,Wunderground v.1.15,2013-12-16 22:29:00,
2013-12-16 17:31:00,49.6,25.0,30.26,SW,220,1.0,7.0,38,0.00,,,0.00,Wunderground v.1.15,2013-12-16 22:31:00,
2013-12-16 17:34:00,49.4,25.4,30.26,WSW,244,1.0,7.0,39,0.00,,,0.00,Wunderground v.1.15,2013-12-16 22:34:00,
2013-12-16 17:35:00,49.4,25.4,30.26,SW,236,2.0,7.0,39,0.00,,,0.00,Wunderground v.1.15,2013-12-16 22:35:00,
2013-12-16 17:36:00,49.4,25.4,30.26,SW,236,2.0,7.0,39,0.00,,,0.00,Wunderground v.1.15,2013-12-16 22:36:00,
2013-12-16 17:38:00,49.4,25.4,30.26,SW,236,2.0,7.0,39,0.00,,,0.00,Wunderground v.1.15,2013-12-16 22:38:00,
2013-12-16 17:41:00,49.4,25.4,30.26,SW,236,2.0,7.0,39,0.00,,,0.00,Wunderground v.1.15,2013-12-16 22:41:00,
2013-12-16 17:42:00,49.4,26.1,30.26,SW,236,2.0,7.0,40,0.00,,,0.00,Wunderground v.1.15,2013-12-16 22:42:00,
2013-12-16 17:43:00,49.4,25.4,30.26,SW,236,2.0,7.0,39,0.00,,,0.00,Wunderground v.1.15,2013-12-16 22:43:00,
2013-12-16 17:47:00,49.4,26.1,30.26,SW,236,1.0,7.0,40,0.00,,,0.00,Wunderground v.1.15,2013-12-16 22:47:00,
2013-12-16 17:48:00,49.4,26.1,30.26,SW,236,1.0,7.0,40,0.00,,,0.00,Wunderground v.1.15,2013-12-16 22:48:00,
2013-12-16 17:50:00,49.3,26.6,30.26,SW,236,1.0,1.0,41,0.00,,,0.00,Wunderground v.1.15,2013-12-16 22:50:00,
2013-12-16 17:51:00,49.2,25.9,30.26,SW,236,1.0,7.0,40,0.00,,,0.00,Wunderground v.1.15,2013-12-16 22:51:00,
2013-12-16 17:53:00,49.0,26.3,30.26,SW,236,1.0,7.0,41,0.00,,,0.00,Wunderground v.1.15,2013-12-16 22:53:00,
2013-12-16 17:55:00,48.8,26.1,30.26,SW,236,1.0,7.0,41,0.00,,,0.00,Wunderground v.1.15,2013-12-16 22:55:00,
2013-12-16 17:56:00,48.7,26.6,30.26,SW,236,0.0,7.0,42,0.00,,,0.00,Wunderground v.1.15,2013-12-16 22:56:00,
2013-12-16 17:57:00,48.6,26.5,30.26,SW,236,0.0,7.0,42,0.00,,,0.00,Wunderground v.1.15,2013-12-16 22:57:00,
2013-12-16 17:59:00,48.5,26.4,30.26,SW,236,0.0,7.0,42,0.00,,,0.00,Wunderground v.1.15,2013-12-16 22:59:00,
2013-12-16 18:01:00,48.3,26.2,30.26,SW,236,0.0,7.0,42,0.00,,,0.00,Wunderground v.1.15,2013-12-16 23:01:00,
2013-12-16 18:02:00,48.3,26.2,30.26,SW,236,1.0,7.0,42,0.00,,,0.00,Wunderground v.1.15,2013-12-16 23:02:00,
2013-12-16 18:03:00,48.3,26.2,30.26,SW,236,1.0,7.0,42,0.00,,,0.00,Wunderground v.1.15,2013-12-16 23:03:00,
2013-12-16 18:06:00,48.3,26.8,30.26,SW,236,1.0,7.0,43,0.00,,,0.00,Wunderground v.1.15,2013-12-16 23:06:00,
2013-12-16 18:07:00,48.1,27.2,30.26,SW,236,1.0,7.0,44,0.00,,,0.00,Wunderground v.1.15,2013-12-16 23:07:00,
2013-12-16 18:08:00,48.1,27.7,30.26,SW,236,1.0,7.0,45,0.00,,,0.00,Wunderground v.1.15,2013-12-16 23:08:00,
2013-12-16 18:09:00,47.9,28.1,30.26,SW,236,1.0,7.0,46,0.00,,,0.00,Wunderground v.1.15,2013-12-16 23:09:00,
2013-12-16 18:10:00,47.8,28.0,30.26,SW,236,1.0,1.0,46,0.00,,,0.00,Wunderground v.1.15,2013-12-16 23:10:00,
2013-12-16 18:12:00,47.5,27.7,30.26,SW,236,0.0,7.0,46,0.00,,,0.00,Wunderground v.1.15,2013-12-16 23:12:00,
2013-12-16 18:13:00,47.4,28.2,30.26,SW,236,0.0,7.0,47,0.00,,,0.00,Wunderground v.1.15,2013-12-16 23:13:00,
2013-12-16 18:14:00,47.2,27.5,30.26,SW,236,0.0,7.0,46,0.00,,,0.00,Wunderground v.1.15,2013-12-16 23:14:00,
2013-12-16 18:17:00,46.8,27.1,30.26,SW,236,0.0,7.0,46,0.00,,,0.00,Wunderground v.1.15,2013-12-16 23:17:00,
2013-12-16 18:18:00,46.7,27.0,30.26,SW,236,0.0,7.0,46,0.00,,,0.00,Wunderground v.1.15,2013-12-16 23:18:00,
2013-12-16 18:19:00,46.6,27.4,30.26,SW,236,0.0,7.0,47,0.00,,,0.00,Wunderground v.1.15,2013-12-16 23:19:00,
2013-12-16 18:23:00,46.3,27.2,30.26,SW,236,0.0,7.0,47,0.00,,,0.00,Wunderground v.1.15,2013-12-16 23:23:00,
2013-12-16 18:24:00,46.3,27.7,30.26,SW,235,0.0,7.0,48,0.00,,,0.00,Wunderground v.1.15,2013-12-16 23:24:00,
2013-12-16 18:25:00,46.3,27.7,30.26,SW,235,1.0,7.0,48,0.00,,,0.00,Wunderground v.1.15,2013-12-16 23:25:00,
2013-12-16 18:27:00,46.1,27.5,30.27,SW,235,1.0,7.0,48,0.00,,,0.00,Wunderground v.1.15,2013-12-16 23:27:00,
2013-12-16 18:29:00,46.0,27.4,30.27,SW,235,1.0,7.0,48,0.00,,,0.00,Wunderground v.1.15,2013-12-16 23:29:00,
2013-12-16 18:32:00,45.7,27.1,30.27,SW,235,1.0,7.0,48,0.00,,,0.00,Wunderground v.1.15,2013-12-16 23:32:00,
2013-12-16 18:33:00,45.6,28.0,30.27,SW,235,1.0,7.0,50,0.00,,,0.00,Wunderground v.1.15,2013-12-16 23:33:00,
2013-12-16 18:34:00,45.5,28.4,30.27,SW,235,1.0,7.0,51,0.00,,,0.00,Wunderground v.1.15,2013-12-16 23:34:00,
2013-12-16 18:36:00,45.3,28.2,30.27,SW,235,1.0,7.0,51,0.00,,,0.00,Wunderground v.1.15,2013-12-16 23:36:00,
2013-12-16 18:38:00,45.1,29.0,30.26,SW,235,0.0,7.0,53,0.00,,,0.00,Wunderground v.1.15,2013-12-16 23:38:00,
2013-12-16 18:40:00,44.7,29.1,30.26,SW,234,1.0,1.0,54,0.00,,,0.00,Wunderground v.1.15,2013-12-16 23:40:00,
2013-12-16 18:41:00,44.6,29.9,30.26,SW,234,1.0,7.0,56,0.00,,,0.00,Wunderground v.1.15,2013-12-16 23:41:00,
2013-12-16 18:42:00,44.3,29.6,30.26,SW,234,1.0,7.0,56,0.00,,,0.00,Wunderground v.1.15,2013-12-16 23:42:00,
2013-12-16 18:43:00,44.2,29.0,30.26,SW,227,1.0,7.0,55,0.00,,,0.00,Wunderground v.1.15,2013-12-16 23:43:00,
2013-12-16 18:46:00,43.8,29.1,30.26,SSE,166,1.0,7.0,56,0.00,,,0.00,Wunderground v.1.15,2013-12-16 23:46:00,
2013-12-16 18:47:00,43.7,28.6,30.26,SSE,166,1.0,7.0,55,0.00,,,0.00,Wunderground v.1.15,2013-12-16 23:47:00,
2013-12-16 18:48:00,43.6,28.9,30.26,SSE,166,1.0,7.0,56,0.00,,,0.00,Wunderground v.1.15,2013-12-16 23:48:00,
2013-12-16 18:49:00,43.6,28.9,30.26,SSE,166,1.0,7.0,56,0.00,,,0.00,Wunderground v.1.15,2013-12-16 23:49:00,
2013-12-16 18:50:00,43.5,29.3,30.26,SSE,166,1.0,1.0,57,0.00,,,0.00,Wunderground v.1.15,2013-12-16 23:50:00,
2013-12-16 18:54:00,43.5,27.5,30.27,SSE,166,1.0,7.0,53,0.00,,,0.00,Wunderground v.1.15,2013-12-16 23:54:00,
2013-12-16 18:55:00,43.5,27.9,30.27,SSE,166,1.0,7.0,54,0.00,,,0.00,Wunderground v.1.15,2013-12-16 23:55:00,
2013-12-16 18:56:00,43.6,28.5,30.27,SSE,166,1.0,7.0,55,0.00,,,0.00,Wunderground v.1.15,2013-12-16 23:56:00,
2013-12-16 18:58:00,43.6,28.9,30.27,SSE,166,1.0,7.0,56,0.00,,,0.00,Wunderground v.1.15,2013-12-16 23:58:00,
2013-12-16 18:59:00,43.5,29.7,30.26,SSE,166,1.0,7.0,58,0.00,,,0.00,Wunderground v.1.15,2013-12-16 23:59:00,
2013-12-16 19:01:00,43.3,28.6,30.27,SSE,166,1.0,7.0,56,0.00,,,0.00,Wunderground v.1.15,2013-12-17 00:01:00,
2013-12-16 19:03:00,43.2,29.0,30.27,SSE,166,1.0,7.0,57,0.00,,,0.00,Wunderground v.1.15,2013-12-17 00:03:00,
2013-12-16 19:04:00,43.1,28.9,30.27,SSE,166,1.0,7.0,57,0.00,,,0.00,Wunderground v.1.15,2013-12-17 00:04:00,
2013-12-16 19:07:00,42.8,29.0,30.27,SSE,166,0.0,7.0,58,0.00,,,0.00,Wunderground v.1.15,2013-12-17 00:07:00,
2013-12-16 19:09:00,42.7,28.5,30.27,SSE,166,0.0,7.0,57,0.00,,,0.00,Wunderground v.1.15,2013-12-17 00:09:00,
2013-12-16 19:12:00,42.5,27.9,30.27,SSE,166,0.0,7.0,56,0.00,,,0.00,Wunderground v.1.15,2013-12-17 00:12:00,
2013-12-16 19:15:00,42.3,28.1,30.27,SSE,166,1.0,7.0,57,0.00,,,0.00,Wunderground v.1.15,2013-12-17 00:15:00,
2013-12-16 19:16:00,42.3,28.1,30.27,SSE,166,1.0,7.0,57,0.00,,,0.00,Wunderground v.1.15,2013-12-17 00:16:00,
2013-12-16 19:19:00,42.1,27.9,30.27,SSE,166,1.0,7.0,57,0.00,,,0.00,Wunderground v.1.15,2013-12-17 00:19:00,
2013-12-16 19:22:00,41.9,28.2,30.27,SSE,166,1.0,7.0,58,0.00,,,0.00,Wunderground v.1.15,2013-12-17 00:22:00,
2013-12-16 19:24:00,41.8,28.1,30.27,SSE,166,1.0,7.0,58,0.00,,,0.00,Wunderground v.1.15,2013-12-17 00:24:00,
2013-12-16 19:25:00,41.7,28.0,30.27,SSE,166,1.0,7.0,58,0.00,,,0.00,Wunderground v.1.15,2013-12-17 00:25:00,
2013-12-16 19:27:00,41.5,28.6,30.27,SSE,166,1.0,7.0,60,0.00,,,0.00,Wunderground v.1.15,2013-12-17 00:27:00,
2013-12-16 19:28:00,41.3,28.4,30.26,SSE,166,1.0,7.0,60,0.00,,,0.00,Wunderground v.1.15,2013-12-17 00:28:00,
2013-12-16 19:32:00,41.2,27.9,30.26,SSE,166,2.0,7.0,59,0.00,,,0.00,Wunderground v.1.15,2013-12-17 00:32:00,
2013-12-16 19:33:00,41.2,27.1,30.27,SSE,161,2.0,7.0,57,0.00,,,0.00,Wunderground v.1.15,2013-12-17 00:33:00,
2013-12-16 19:34:00,41.3,27.2,30.26,SSE,161,2.0,7.0,57,0.00,,,0.00,Wunderground v.1.15,2013-12-17 00:34:00,
2013-12-16 19:38:00,41.8,27.2,30.27,SSE,161,2.0,7.0,56,0.00,,,0.00,Wunderground v.1.15,2013-12-17 00:38:00,
2013-12-16 19:39:00,41.9,27.8,30.27,SSE,161,2.0,7.0,57,0.00,,,0.00,Wunderground v.1.15,2013-12-17 00:39:00,
2013-12-16 19:40:00,41.9,27.8,30.26,SSE,161,2.0,7.0,57,0.00,,,0.00,Wunderground v.1.15,2013-12-17 00:40:00,
2013-12-16 19:44:00,42.0,27.9,30.27,SSE,161,2.0,7.0,57,0.00,,,0.00,Wunderground v.1.15,2013-12-17 00:44:00,
2013-12-16 19:45:00,41.9,27.8,30.27,SSE,161,2.0,7.0,57,0.00,,,0.00,Wunderground v.1.15,2013-12-17 00:45:00,
2013-12-16 19:46:00,41.9,26.9,30.26,SSE,161,2.0,7.0,55,0.00,,,0.00,Wunderground v.1.15,2013-12-17 00:46:00,
2013-12-16 19:48:00,42.0,27.0,30.26,SSE,161,2.0,7.0,55,0.00,,,0.00,Wunderground v.1.15,2013-12-17 00:48:00,
2013-12-16 19:49:00,42.0,27.0,30.26,SSE,161,1.0,7.0,55,0.00,,,0.00,Wunderground v.1.15,2013-12-17 00:49:00,
2013-12-16 19:51:00,42.0,27.0,30.26,SSE,161,1.0,7.0,55,0.00,,,0.00,Wunderground v.1.15,2013-12-17 00:51:00,
2013-12-16 19:53:00,42.0,27.0,30.26,SSE,161,2.0,7.0,55,0.00,,,0.00,Wunderground v.1.15,2013-12-17 00:53:00,
2013-12-16 19:55:00,42.0,27.9,30.26,SSE,161,1.0,7.0,57,0.00,,,0.00,Wunderground v.1.15,2013-12-17 00:55:00,
2013-12-16 19:57:00,41.9,26.9,30.26,SSE,161,1.0,7.0,55,0.00,,,0.00,Wunderground v.1.15,2013-12-17 00:57:00,
2013-12-16 19:58:00,41.9,26.9,30.26,SSE,161,1.0,7.0,55,0.00,,,0.00,Wunderground v.1.15,2013-12-17 00:58:00,
2013-12-16 19:59:00,41.9,26.4,30.26,SSE,161,1.0,7.0,54,0.00,,,0.00,Wunderground v.1.15,2013-12-17 00:59:00,
2013-12-16 20:01:00,42.0,26.5,30.27,SSE,161,1.0,7.0,54,0.00,,,0.00,Wunderground v.1.15,2013-12-17 01:01:00,
2013-12-16 20:04:00,42.0,26.5,30.27,SSE,161,0.0,7.0,54,0.00,,,0.00,Wunderground v.1.15,2013-12-17 01:04:00,
2013-12-16 20:05:00,42.1,26.2,30.27,SSE,161,0.0,7.0,53,0.00,,,0.00,Wunderground v.1.15,2013-12-17 01:05:00,
2013-12-16 20:06:00,42.1,26.6,30.27,SSE,161,0.0,7.0,54,0.00,,,0.00,Wunderground v.1.15,2013-12-17 01:06:00,
2013-12-16 20:07:00,42.2,26.7,30.26,SSE,161,0.0,7.0,54,0.00,,,0.00,Wunderground v.1.15,2013-12-17 01:07:00,
2013-12-16 20:10:00,42.0,27.0,30.27,SSE,161,1.0,7.0,55,0.00,,,0.00,Wunderground v.1.15,2013-12-17 01:10:00,
2013-12-16 20:11:00,42.0,26.5,30.26,SSE,161,1.0,7.0,54,0.00,,,0.00,Wunderground v.1.15,2013-12-17 01:11:00,
2013-12-16 20:12:00,42.0,26.5,30.26,SSE,161,1.0,7.0,54,0.00,,,0.00,Wunderground v.1.15,2013-12-17 01:12:00,
2013-12-16 20:13:00,42.0,26.5,30.26,SSE,161,1.0,7.0,54,0.00,,,0.00,Wunderground v.1.15,2013-12-17 01:13:00,
2013-12-16 20:14:00,42.0,27.0,30.26,SSE,161,1.0,7.0,55,0.00,,,0.00,Wunderground v.1.15,2013-12-17 01:14:00,
2013-12-16 20:16:00,41.9,26.4,30.26,SSE,161,1.0,7.0,54,0.00,,,0.00,Wunderground v.1.15,2013-12-17 01:16:00,
2013-12-16 20:17:00,42.0,26.5,30.27,SSE,161,1.0,7.0,54,0.00,,,0.00,Wunderground v.1.15,2013-12-17 01:17:00,
2013-12-16 20:22:00,42.0,27.0,30.27,SSE,161,1.0,7.0,55,0.00,,,0.00,Wunderground v.1.15,2013-12-17 01:22:00,
2013-12-16 20:23:00,42.0,26.5,30.27,SSE,161,1.0,7.0,54,0.00,,,0.00,Wunderground v.1.15,2013-12-17 01:23:00,
2013-12-16 20:28:00,42.0,26.5,30.26,SSE,161,1.0,7.0,54,0.00,,,0.00,Wunderground v.1.15,2013-12-17 01:28:00,
2013-12-16 20:32:00,41.7,27.1,30.26,SSE,163,1.0,7.0,56,0.00,,,0.00,Wunderground v.1.15,2013-12-17 01:32:00,
2013-12-16 20:33:00,41.6,26.6,30.26,SSE,163,1.0,7.0,55,0.00,,,0.00,Wunderground v.1.15,2013-12-17 01:33:00,
2013-12-16 20:35:00,41.5,27.8,30.26,South,180,1.0,7.0,58,0.00,,,0.00,Wunderground v.1.15,2013-12-17 01:35:00,
2013-12-16 20:36:00,41.4,26.9,30.26,South,180,1.0,7.0,56,0.00,,,0.00,Wunderground v.1.15,2013-12-17 01:36:00,
2013-12-16 20:38:00,41.2,27.1,30.26,South,180,0.0,7.0,57,0.00,,,0.00,Wunderground v.1.15,2013-12-17 01:38:00,
2013-12-16 20:39:00,41.1,26.6,30.26,South,180,0.0,7.0,56,0.00,,,0.00,Wunderground v.1.15,2013-12-17 01:39:00,
2013-12-16 20:40:00,41.0,26.5,30.26,South,180,0.0,7.0,56,0.00,,,0.00,Wunderground v.1.15,2013-12-17 01:40:00,
2013-12-16 20:42:00,40.9,26.8,30.26,WSW,240,0.0,7.0,57,0.00,,,0.00,Wunderground v.1.15,2013-12-17 01:42:00,
2013-12-16 20:43:00,40.7,26.6,30.26,WSW,240,0.0,7.0,57,0.00,,,0.00,Wunderground v.1.15,2013-12-17 01:43:00,
2013-12-16 20:47:00,40.5,26.9,30.26,WSW,240,0.0,7.0,58,0.00,,,0.00,Wunderground v.1.15,2013-12-17 01:47:00,
2013-12-16 20:48:00,40.4,26.8,30.26,WSW,240,0.0,7.0,58,0.00,,,0.00,Wunderground v.1.15,2013-12-17 01:48:00,
2013-12-16 20:50:00,40.2,26.6,30.26,WSW,240,0.0,7.0,58,0.00,,,0.00,Wunderground v.1.15,2013-12-17 01:50:00,
2013-12-16 20:52:00,39.8,27.4,30.26,WSW,240,0.0,7.0,61,0.00,,,0.00,Wunderground v.1.15,2013-12-17 01:52:00,
2013-12-16 20:53:00,39.7,26.9,30.26,WSW,240,0.0,7.0,60,0.00,,,0.00,Wunderground v.1.15,2013-12-17 01:53:00,
2013-12-16 20:54:00,39.6,26.8,30.26,WSW,240,0.0,7.0,60,0.00,,,0.00,Wunderground v.1.15,2013-12-17 01:54:00,
2013-12-16 20:55:00,39.6,26.8,30.26,WSW,240,0.0,7.0,60,0.00,,,0.00,Wunderground v.1.15,2013-12-17 01:55:00,
2013-12-16 20:59:00,39.1,27.6,30.26,WSW,255,0.0,7.0,63,0.00,,,0.00,Wunderground v.1.15,2013-12-17 01:59:00,
2013-12-16 21:00:00,39.0,27.5,30.26,WSW,256,0.0,7.0,63,0.00,,,0.00,Wunderground v.1.15,2013-12-17 02:00:00,
2013-12-16 21:01:00,38.9,27.0,30.26,WSW,256,0.0,7.0,62,0.00,,,0.00,Wunderground v.1.15,2013-12-17 02:01:00,
2013-12-16 21:02:00,38.8,27.3,30.26,WSW,256,0.0,7.0,63,0.00,,,0.00,Wunderground v.1.15,2013-12-17 02:02:00,
2013-12-16 21:04:00,38.5,27.0,30.26,WSW,256,0.0,7.0,63,0.00,,,0.00,Wunderground v.1.15,2013-12-17 02:04:00,
2013-12-16 21:06:00,38.3,27.2,30.26,WSW,255,0.0,7.0,64,0.00,,,0.00,Wunderground v.1.15,2013-12-17 02:06:00,
2013-12-16 21:07:00,38.2,27.5,30.26,WSW,255,0.0,7.0,65,0.00,,,0.00,Wunderground v.1.15,2013-12-17 02:07:00,
2013-12-16 21:09:00,38.0,27.3,30.26,WSW,256,0.0,7.0,65,0.00,,,0.00,Wunderground v.1.15,2013-12-17 02:09:00,
2013-12-16 21:10:00,37.9,27.5,30.26,WSW,255,0.0,7.0,66,0.00,,,0.00,Wunderground v.1.15,2013-12-17 02:10:00,
2013-12-16 21:12:00,37.7,27.7,30.26,WSW,255,0.0,7.0,67,0.00,,,0.00,Wunderground v.1.15,2013-12-17 02:12:00,
2013-12-16 21:14:00,37.5,27.2,30.26,WSW,256,0.0,7.0,66,0.00,,,0.00,Wunderground v.1.15,2013-12-17 02:14:00,
2013-12-16 21:17:00,37.3,27.0,30.26,WSW,256,0.0,7.0,66,0.00,,,0.00,Wunderground v.1.15,2013-12-17 02:17:00,
2013-12-16 21:19:00,37.2,26.9,30.27,WSW,255,0.0,7.0,66,0.00,,,0.00,Wunderground v.1.15,2013-12-17 02:19:00,
2013-12-16 21:23:00,37.1,27.2,30.26,WSW,256,0.0,7.0,67,0.00,,,0.00,Wunderground v.1.15,2013-12-17 02:23:00,
2013-12-16 21:24:00,37.0,27.1,30.27,WSW,255,0.0,7.0,67,0.00,,,0.00,Wunderground v.1.15,2013-12-17 02:24:00,
2013-12-16 21:26:00,37.0,27.1,30.27,WSW,255,0.0,7.0,67,0.00,,,0.00,Wunderground v.1.15,2013-12-17 02:26:00,
2013-12-16 21:27:00,36.9,27.0,30.26,WSW,255,0.0,7.0,67,0.00,,,0.00,Wunderground v.1.15,2013-12-17 02:27:00,
2013-12-16 21:29:00,36.8,27.2,30.26,WSW,255,0.0,7.0,68,0.00,,,0.00,Wunderground v.1.15,2013-12-17 02:29:00,
2013-12-16 21:32:00,36.6,26.7,30.26,WSW,255,0.0,7.0,67,0.00,,,0.00,Wunderground v.1.15,2013-12-17 02:32:00,
2013-12-16 21:34:00,36.5,26.9,30.26,WSW,255,0.0,7.0,68,0.00,,,0.00,Wunderground v.1.15,2013-12-17 02:34:00,
2013-12-16 21:37:00,36.2,27.4,30.27,WSW,255,0.0,7.0,70,0.00,,,0.00,Wunderground v.1.15,2013-12-17 02:37:00,
2013-12-16 21:38:00,36.2,27.7,30.26,WSW,256,0.0,7.0,71,0.00,,,0.00,Wunderground v.1.15,2013-12-17 02:38:00,
2013-12-16 21:39:00,36.0,27.5,30.27,WSW,255,0.0,7.0,71,0.00,,,0.00,Wunderground v.1.15,2013-12-17 02:39:00,
2013-12-16 21:40:00,35.9,27.1,30.27,WSW,255,0.0,7.0,70,0.00,,,0.00,Wunderground v.1.15,2013-12-17 02:40:00,
2013-12-16 21:43:00,35.6,26.8,30.27,WSW,255,0.0,7.0,70,0.00,,,0.00,Wunderground v.1.15,2013-12-17 02:43:00,
2013-12-16 21:44:00,35.6,26.8,30.27,WSW,255,0.0,7.0,70,0.00,,,0.00,Wunderground v.1.15,2013-12-17 02:44:00,
2013-12-16 21:45:00,35.4,26.9,30.27,WSW,255,0.0,7.0,71,0.00,,,0.00,Wunderground v.1.15,2013-12-17 02:45:00,
2013-12-16 21:48:00,35.2,26.7,30.27,WSW,255,0.0,7.0,71,0.00,,,0.00,Wunderground v.1.15,2013-12-17 02:48:00,
2013-12-16 21:50:00,35.2,26.4,30.27,WSW,255,0.0,7.0,70,0.00,,,0.00,Wunderground v.1.15,2013-12-17 02:50:00,
2013-12-16 21:51:00,35.2,26.4,30.27,WSW,255,0.0,7.0,70,0.00,,,0.00,Wunderground v.1.15,2013-12-17 02:51:00,
2013-12-16 21:53:00,35.2,26.4,30.27,WSW,256,0.0,7.0,70,0.00,,,0.00,Wunderground v.1.15,2013-12-17 02:53:00,
2013-12-16 21:55:00,35.2,26.4,30.27,WSW,255,0.0,7.0,70,0.00,,,0.00,Wunderground v.1.15,2013-12-17 02:55:00,
2013-12-16 21:57:00,35.2,26.7,30.27,WSW,256,0.0,7.0,71,0.00,,,0.00,Wunderground v.1.15,2013-12-17 02:57:00,
2013-12-16 21:58:00,35.1,26.6,30.27,WSW,255,0.0,7.0,71,0.00,,,0.00,Wunderground v.1.15,2013-12-17 02:58:00,
2013-12-16 22:00:00,35.1,26.6,30.27,WSW,255,0.0,7.0,71,0.00,,,0.00,Wunderground v.1.15,2013-12-17 03:00:00,
2013-12-16 22:05:00,34.9,26.4,30.27,WSW,255,0.0,7.0,71,0.00,,,0.00,Wunderground v.1.15,2013-12-17 03:05:00,
2013-12-16 22:06:00,34.8,26.7,30.27,WSW,255,0.0,7.0,72,0.00,,,0.00,Wunderground v.1.15,2013-12-17 03:06:00,
2013-12-16 22:07:00,34.8,26.7,30.27,WSW,255,0.0,7.0,72,0.00,,,0.00,Wunderground v.1.15,2013-12-17 03:07:00,
2013-12-16 22:08:00,34.7,26.6,30.27,WSW,255,0.0,7.0,72,0.00,,,0.00,Wunderground v.1.15,2013-12-17 03:08:00,
2013-12-16 22:11:00,34.5,26.7,30.27,WSW,255,0.0,7.0,73,0.00,,,0.00,Wunderground v.1.15,2013-12-17 03:11:00,
2013-12-16 22:14:00,34.3,27.2,30.27,WSW,255,0.0,7.0,75,0.00,,,0.00,Wunderground v.1.15,2013-12-17 03:14:00,
2013-12-16 22:16:00,34.1,27.0,30.27,WSW,255,0.0,7.0,75,0.00,,,0.00,Wunderground v.1.15,2013-12-17 03:16:00,
2013-12-16 22:17:00,34.1,27.0,30.27,WSW,255,0.0,7.0,75,0.00,,,0.00,Wunderground v.1.15,2013-12-17 03:17:00,
2013-12-16 22:18:00,34.0,26.9,30.27,WSW,255,0.0,7.0,75,0.00,,,0.00,Wunderground v.1.15,2013-12-17 03:18:00,
2013-12-16 22:19:00,34.0,26.6,30.27,WSW,255,0.0,7.0,74,0.00,,,0.00,Wunderground v.1.15,2013-12-17 03:19:00,
2013-12-16 22:22:00,33.9,26.5,30.27,WSW,256,0.0,7.0,74,0.00,,,0.00,Wunderground v.1.15,2013-12-17 03:22:00,
2013-12-16 22:23:00,33.9,26.8,30.27,WSW,255,0.0,7.0,75,0.00,,,0.00,Wunderground v.1.15,2013-12-17 03:23:00,
2013-12-16 22:24:00,33.8,26.7,30.27,WSW,255,0.0,7.0,75,0.00,,,0.00,Wunderground v.1.15,2013-12-17 03:24:00,
2013-12-16 22:26:00,33.7,26.6,30.27,WSW,255,0.0,7.0,75,0.00,,,0.00,Wunderground v.1.15,2013-12-17 03:26:00,
2013-12-16 22:27:00,33.6,26.8,30.27,WSW,255,0.0,7.0,76,0.00,,,0.00,Wunderground v.1.15,2013-12-17 03:27:00,
2013-12-16 22:28:00,33.5,26.7,30.27,WSW,255,0.0,7.0,76,0.00,,,0.00,Wunderground v.1.15,2013-12-17 03:28:00,
2013-12-16 22:31:00,33.3,26.5,30.27,WSW,255,0.0,7.0,76,0.00,,,0.00,Wunderground v.1.15,2013-12-17 03:31:00,
2013-12-16 22:35:00,32.9,26.8,30.27,WSW,255,0.0,7.0,78,0.00,,,0.00,Wunderground v.1.15,2013-12-17 03:35:00,
2013-12-16 22:37:00,32.7,26.3,30.27,WSW,255,0.0,7.0,77,0.00,,,0.00,Wunderground v.1.15,2013-12-17 03:37:00,
2013-12-16 22:38:00,32.7,26.3,30.27,WSW,255,0.0,7.0,77,0.00,,,0.00,Wunderground v.1.15,2013-12-17 03:38:00,
2013-12-16 22:40:00,32.6,26.5,30.27,WSW,255,1.0,1.0,78,0.00,,,0.00,Wunderground v.1.15,2013-12-17 03:40:00,
2013-12-16 22:41:00,32.6,26.5,30.27,WSW,255,1.0,7.0,78,0.00,,,0.00,Wunderground v.1.15,2013-12-17 03:41:00,
2013-12-16 22:42:00,32.7,26.6,30.27,WSW,255,1.0,7.0,78,0.00,,,0.00,Wunderground v.1.15,2013-12-17 03:42:00,
2013-12-16 22:46:00,32.7,26.6,30.28,WSW,255,0.0,7.0,78,0.00,,,0.00,Wunderground v.1.15,2013-12-17 03:46:00,
2013-12-16 22:49:00,32.7,26.6,30.27,WSW,255,0.0,7.0,78,0.00,,,0.00,Wunderground v.1.15,2013-12-17 03:49:00,
2013-12-16 22:50:00,32.7,26.6,30.27,WSW,255,0.0,7.0,78,0.00,,,0.00,Wunderground v.1.15,2013-12-17 03:50:00,
2013-12-16 22:52:00,32.7,26.3,30.27,WSW,255,0.0,7.0,77,0.00,,,0.00,Wunderground v.1.15,2013-12-17 03:52:00,
2013-12-16 22:53:00,32.8,26.4,30.27,WSW,255,0.0,7.0,77,0.00,,,0.00,Wunderground v.1.15,2013-12-17 03:53:00,
2013-12-16 22:54:00,32.8,27.0,30.27,WSW,255,0.0,7.0,79,0.00,,,0.00,Wunderground v.1.15,2013-12-17 03:54:00,
2013-12-16 22:56:00,32.8,27.0,30.27,WSW,255,0.0,7.0,79,0.00,,,0.00,Wunderground v.1.15,2013-12-17 03:56:00,
2013-12-16 22:58:00,32.8,26.4,30.27,WSW,255,0.0,7.0,77,0.00,,,0.00,Wunderground v.1.15,2013-12-17 03:58:00,
2013-12-16 22:59:00,32.8,26.4,30.27,WSW,255,0.0,7.0,77,0.00,,,0.00,Wunderground v.1.15,2013-12-17 03:59:00,
2013-12-16 23:00:00,32.8,26.4,30.27,WSW,255,0.0,0.0,77,0.00,,,0.00,Wunderground v.1.15,2013-12-17 04:00:00,
2013-12-16 23:03:00,32.8,26.7,30.27,WSW,255,0.0,0.0,78,0.00,,,0.00,Wunderground v.1.15,2013-12-17 04:03:00,
2013-12-16 23:06:00,32.7,26.6,30.28,WSW,255,0.0,0.0,78,0.00,,,0.00,Wunderground v.1.15,2013-12-17 04:06:00,
2013-12-16 23:09:00,32.6,26.5,30.27,WSW,255,0.0,0.0,78,0.00,,,0.00,Wunderground v.1.15,2013-12-17 04:09:00,
2013-12-16 23:11:00,32.6,26.8,30.28,WSW,255,0.0,0.0,79,0.00,,,0.00,Wunderground v.1.15,2013-12-17 04:11:00,
2013-12-16 23:12:00,32.5,26.7,30.28,WSW,255,0.0,0.0,79,0.00,,,0.00,Wunderground v.1.15,2013-12-17 04:12:00,
2013-12-16 23:14:00,32.4,26.9,30.28,WSW,255,0.0,0.0,80,0.00,,,0.00,Wunderground v.1.15,2013-12-17 04:14:00,
2013-12-16 23:18:00,32.3,26.8,30.28,WSW,255,0.0,1.0,80,0.00,,,0.00,Wunderground v.1.15,2013-12-17 04:18:00,
2013-12-16 23:19:00,32.3,26.8,30.27,WSW,255,0.0,1.0,80,0.00,,,0.00,Wunderground v.1.15,2013-12-17 04:19:00,
2013-12-16 23:20:00,32.2,26.7,30.27,WSW,255,0.0,1.0,80,0.00,,,0.00,Wunderground v.1.15,2013-12-17 04:20:00,
2013-12-16 23:23:00,32.1,26.6,30.28,WSW,255,0.0,1.0,80,0.00,,,0.00,Wunderground v.1.15,2013-12-17 04:23:00,
2013-12-16 23:25:00,32.1,26.6,30.28,WSW,255,0.0,1.0,80,0.00,,,0.00,Wunderground v.1.15,2013-12-17 04:25:00,
2013-12-16 23:26:00,32.0,26.5,30.28,WSW,255,0.0,1.0,80,0.00,,,0.00,Wunderground v.1.15,2013-12-17 04:26:00,
2013-12-16 23:28:00,32.0,26.8,30.28,WSW,255,0.0,1.0,81,0.00,,,0.00,Wunderground v.1.15,2013-12-17 04:28:00,
2013-12-16 23:30:00,31.9,26.7,30.28,WSW,255,0.0,1.0,81,0.00,,,0.00,Wunderground v.1.15,2013-12-17 04:30:00,
2013-12-16 23:31:00,31.8,26.6,30.28,WSW,255,0.0,1.0,81,0.00,,,0.00,Wunderground v.1.15,2013-12-17 04:31:00,
2013-12-16 23:35:00,31.8,26.9,30.28,WSW,255,0.0,1.0,82,0.00,,,0.00,Wunderground v.1.15,2013-12-17 04:35:00,
2013-12-16 23:37:00,31.9,27.0,30.28,WSW,255,0.0,1.0,82,0.00,,,0.00,Wunderground v.1.15,2013-12-17 04:37:00,
2013-12-16 23:38:00,31.9,26.7,30.28,WSW,255,0.0,1.0,81,0.00,,,0.00,Wunderground v.1.15,2013-12-17 04:38:00,
2013-12-16 23:39:00,32.0,26.8,30.28,WSW,255,0.0,1.0,81,0.00,,,0.00,Wunderground v.1.15,2013-12-17 04:39:00,
2013-12-16 23:40:00,32.1,26.6,30.28,WSW,255,0.0,0.0,80,0.00,,,0.00,Wunderground v.1.15,2013-12-17 04:40:00,
2013-12-16 23:42:00,32.3,26.8,30.28,WSW,255,0.0,0.0,80,0.00,,,0.00,Wunderground v.1.15,2013-12-17 04:42:00,
2013-12-16 23:44:00,32.5,27.0,30.28,WSW,255,0.0,1.0,80,0.00,,,0.00,Wunderground v.1.15,2013-12-17 04:44:00,
2013-12-16 23:45:00,32.5,27.0,30.28,WSW,255,0.0,1.0,80,0.00,,,0.00,Wunderground v.1.15,2013-12-17 04:45:00,
2013-12-16 23:47:00,32.5,27.0,30.28,WSW,255,0.0,1.0,80,0.00,,,0.00,Wunderground v.1.15,2013-12-17 04:47:00,
2013-12-16 23:50:00,32.6,27.4,30.28,WSW,255,0.0,0.0,81,0.00,,,0.00,Wunderground v.1.15,2013-12-17 04:50:00,
2013-12-16 23:52:00,32.7,27.2,30.28,WSW,255,0.0,0.0,80,0.00,,,0.00,Wunderground v.1.15,2013-12-17 04:52:00,
2013-12-16 23:53:00,32.7,26.9,30.28,WSW,255,0.0,0.0,79,0.00,,,0.00,Wunderground v.1.15,2013-12-17 04:53:00,
2013-12-16 23:54:00,32.7,26.6,30.28,WSW,255,0.0,0.0,78,0.00,,,0.00,Wunderground v.1.15,2013-12-17 04:54:00,
2013-12-16 23:57:00,32.6,26.8,30.28,WSW,255,0.0,0.0,79,0.00,,,0.00,Wunderground v.1.15,2013-12-17 04:57:00,